Time,TemperatureF,DewpointF,PressureIn,WindDirection,WindDirectionDegrees,WindSpeedMPH,WindSpeedGustMPH,Humidity,HourlyPrecipIn,Conditions,Clouds,dailyrainin,SoftwareType,DateUTC
2013-05-24 00:02:00,79.9,69.7,30.09,East,90,5.0,7.0,71,0.00,,,0.00,WUHU21623XXSP,2013-05-24 05:02:00,
2013-05-24 00:03:00,79.9,69.7,30.09,East,90,9.0,9.0,71,0.00,,,0.00,WUHU21623XXSP,2013-05-24 05:03:00,
2013-05-24 00:07:00,79.9,69.7,30.10,ESE,112,4.0,9.0,71,0.00,,,0.00,WUHU21623XXSP,2013-05-24 05:07:00,
2013-05-24 00:08:00,79.9,69.7,30.10,ESE,112,2.0,9.0,71,0.00,,,0.00,WUHU21623XXSP,2013-05-24 05:08:00,
2013-05-24 00:09:00,79.9,69.7,30.10,ESE,112,2.0,9.0,71,0.00,,,0.00,WUHU21623XXSP,2013-05-24 05:09:00,
2013-05-24 00:13:00,79.9,69.7,30.10,ESE,112,2.0,8.0,71,0.00,,,0.00,WUHU21623XXSP,2013-05-24 05:13:00,
2013-05-24 00:14:00,79.9,69.7,30.10,East,90,5.0,8.0,71,0.00,,,0.00,WUHU21623XXSP,2013-05-24 05:14:00,
2013-05-24 00:18:00,79.9,69.7,30.09,East,90,3.0,8.0,71,0.00,,,0.00,WUHU21623XXSP,2013-05-24 05:18:00,
2013-05-24 00:19:00,79.9,69.7,30.09,NE,45,5.0,8.0,71,0.00,,,0.00,WUHU21623XXSP,2013-05-24 05:19:00,
2013-05-24 00:23:00,79.7,69.5,30.09,ESE,122,4.0,6.0,71,0.00,,,0.00,WUHU21623XXSP,2013-05-24 05:23:00,
2013-05-24 00:24:00,79.7,69.5,30.09,SE,135,3.0,6.0,71,0.00,,,0.00,WUHU21623XXSP,2013-05-24 05:24:00,
2013-05-24 00:28:00,79.7,69.5,30.08,SE,135,6.0,7.0,71,0.00,,,0.00,WUHU21623XXSP,2013-05-24 05:28:00,
2013-05-24 00:29:00,79.7,69.5,30.08,ESE,120,4.0,7.0,71,0.00,,,0.00,WUHU21623XXSP,2013-05-24 05:29:00,
2013-05-24 00:30:00,79.7,69.5,30.08,ESE,112,8.0,8.0,71,0.00,,,0.00,WUHU21623XXSP,2013-05-24 05:30:00,
2013-05-24 00:33:00,79.7,69.1,30.08,ESE,112,4.0,8.0,70,0.00,,,0.00,WUHU21623XXSP,2013-05-24 05:33:00,
2013-05-24 00:34:00,79.7,69.1,30.08,ESE,112,4.0,8.0,70,0.00,,,0.00,WUHU21623XXSP,2013-05-24 05:34:00,
2013-05-24 00:35:00,79.5,68.9,30.08,ENE,67,5.0,8.0,70,0.00,,,0.00,WUHU21623XXSP,2013-05-24 05:35:00,
2013-05-24 00:39:00,79.5,68.9,30.08,ESE,113,5.0,9.0,70,0.00,,,0.00,WUHU21623XXSP,2013-05-24 05:39:00,
2013-05-24 00:40:00,79.5,68.9,30.08,SSE,157,7.0,9.0,70,0.00,,,0.00,WUHU21623XXSP,2013-05-24 05:40:00,
2013-05-24 00:44:00,79.5,68.9,30.08,ESE,112,9.0,9.0,70,0.00,,,0.00,WUHU21623XXSP,2013-05-24 05:44:00,
2013-05-24 00:45:00,79.5,68.9,30.08,ESE,112,9.0,9.0,70,0.00,,,0.00,WUHU21623XXSP,2013-05-24 05:45:00,
2013-05-24 00:46:00,79.5,68.9,30.08,ESE,112,8.0,9.0,70,0.00,,,0.00,WUHU21623XXSP,2013-05-24 05:46:00,
2013-05-24 00:49:00,79.5,68.9,30.08,ESE,112,2.0,9.0,70,0.00,,,0.00,WUHU21623XXSP,2013-05-24 05:49:00,
2013-05-24 00:50:00,79.5,68.9,30.09,ESE,112,5.0,9.0,70,0.00,,,0.00,WUHU21623XXSP,2013-05-24 05:50:00,
2013-05-24 00:51:00,79.5,68.9,30.09,SE,135,6.0,9.0,70,0.00,,,0.00,WUHU21623XXSP,2013-05-24 05:51:00,
2013-05-24 00:54:00,79.5,68.9,30.10,East,90,8.0,8.0,70,0.00,,,0.00,WUHU21623XXSP,2013-05-24 05:54:00,
2013-05-24 00:55:00,79.5,68.9,30.10,East,90,8.0,8.0,70,0.00,,,0.00,WUHU21623XXSP,2013-05-24 05:55:00,
2013-05-24 00:56:00,79.5,68.9,30.10,East,90,5.0,8.0,70,0.00,,,0.00,WUHU21623XXSP,2013-05-24 05:56:00,
2013-05-24 00:59:00,79.5,68.9,30.09,ESE,112,5.0,8.0,70,0.00,,,0.00,WUHU21623XXSP,2013-05-24 05:59:00,
2013-05-24 01:00:00,79.5,68.9,30.09,ESE,112,5.0,8.0,70,0.00,,,0.00,WUHU21623XXSP,2013-05-24 06:00:00,
2013-05-24 01:01:00,79.5,68.9,30.09,ESE,112,5.0,8.0,70,0.00,,,0.00,WUHU21623XXSP,2013-05-24 06:01:00,
2013-05-24 01:04:00,79.5,68.9,30.09,East,90,2.0,7.0,70,0.00,,,0.00,WUHU21623XXSP,2013-05-24 06:04:00,
2013-05-24 01:05:00,79.5,68.9,30.10,ESE,112,5.0,7.0,70,0.00,,,0.00,WUHU21623XXSP,2013-05-24 06:05:00,
2013-05-24 01:06:00,79.5,68.9,30.10,ESE,121,4.0,7.0,70,0.00,,,0.00,WUHU21623XXSP,2013-05-24 06:06:00,
2013-05-24 01:09:00,79.5,68.9,30.10,ESE,113,4.0,6.0,70,0.00,,,0.00,WUHU21623XXSP,2013-05-24 06:09:00,
2013-05-24 01:10:00,79.5,68.9,30.10,ESE,113,4.0,6.0,70,0.00,,,0.00,WUHU21623XXSP,2013-05-24 06:10:00,
2013-05-24 01:11:00,79.3,68.7,30.10,ESE,112,3.0,6.0,70,0.00,,,0.00,WUHU21623XXSP,2013-05-24 06:11:00,
2013-05-24 01:14:00,79.3,68.7,30.11,SE,125,6.0,7.0,70,0.00,,,0.00,WUHU21623XXSP,2013-05-24 06:14:00,
2013-05-24 01:15:00,79.3,68.7,30.11,ESE,112,4.0,7.0,70,0.00,,,0.00,WUHU21623XXSP,2013-05-24 06:15:00,
2013-05-24 01:17:00,79.3,68.7,30.10,SE,135,3.0,7.0,70,0.00,,,0.00,WUHU21623XXSP,2013-05-24 06:17:00,
2013-05-24 01:20:00,79.3,68.7,30.11,ESE,112,2.0,7.0,70,0.00,,,0.00,WUHU21623XXSP,2013-05-24 06:20:00,
2013-05-24 01:21:00,79.3,68.7,30.10,SE,135,3.0,7.0,70,0.00,,,0.00,WUHU21623XXSP,2013-05-24 06:21:00,
2013-05-24 01:22:00,79.3,68.7,30.10,ESE,112,5.0,7.0,70,0.00,,,0.00,WUHU21623XXSP,2013-05-24 06:22:00,
2013-05-24 01:25:00,79.3,68.7,30.11,SE,130,2.0,5.0,70,0.00,,,0.00,WUHU21623XXSP,2013-05-24 06:25:00,
2013-05-24 01:26:00,79.3,68.7,30.11,ESE,112,4.0,5.0,70,0.00,,,0.00,WUHU21623XXSP,2013-05-24 06:26:00,
2013-05-24 01:27:00,79.3,68.7,30.11,ESE,112,4.0,5.0,70,0.00,,,0.00,WUHU21623XXSP,2013-05-24 06:27:00,
2013-05-24 01:30:00,79.3,68.7,30.10,ESE,112,4.0,5.0,70,0.00,,,0.00,WUHU21623XXSP,2013-05-24 06:30:00,
2013-05-24 01:31:00,79.3,68.7,30.10,ESE,112,5.0,5.0,70,0.00,,,0.00,WUHU21623XXSP,2013-05-24 06:31:00,
2013-05-24 01:32:00,79.3,68.7,30.10,ESE,102,3.0,5.0,70,0.00,,,0.00,WUHU21623XXSP,2013-05-24 06:32:00,
2013-05-24 01:35:00,79.3,68.7,30.10,ESE,112,4.0,5.0,70,0.00,,,0.00,WUHU21623XXSP,2013-05-24 06:35:00,
2013-05-24 01:36:00,79.3,68.7,30.10,ESE,112,4.0,5.0,70,0.00,,,0.00,WUHU21623XXSP,2013-05-24 06:36:00,
2013-05-24 01:37:00,79.3,68.7,30.10,East,101,3.0,5.0,70,0.00,,,0.00,WUHU21623XXSP,2013-05-24 06:37:00,
2013-05-24 01:40:00,79.3,68.7,30.10,ESE,113,5.0,5.0,70,0.00,,,0.00,WUHU21623XXSP,2013-05-24 06:40:00,
2013-05-24 01:41:00,79.3,68.7,30.10,ESE,113,5.0,5.0,70,0.00,,,0.00,WUHU21623XXSP,2013-05-24 06:41:00,
2013-05-24 01:42:00,79.3,68.7,30.10,ESE,119,4.0,5.0,70,0.00,,,0.00,WUHU21623XXSP,2013-05-24 06:42:00,
2013-05-24 01:45:00,79.2,68.5,30.10,ESE,112,5.0,5.0,70,0.00,,,0.00,WUHU21623XXSP,2013-05-24 06:45:00,
2013-05-24 01:46:00,79.2,68.5,30.10,ESE,112,3.0,5.0,70,0.00,,,0.00,WUHU21623XXSP,2013-05-24 06:46:00,
2013-05-24 01:47:00,79.2,68.5,30.10,ESE,112,2.0,5.0,70,0.00,,,0.00,WUHU21623XXSP,2013-05-24 06:47:00,
2013-05-24 01:50:00,79.0,68.4,30.09,East,90,3.0,5.0,70,0.00,,,0.00,WUHU21623XXSP,2013-05-24 06:50:00,
2013-05-24 01:51:00,79.0,68.4,30.09,East,90,3.0,5.0,70,0.00,,,0.00,WUHU21623XXSP,2013-05-24 06:51:00,
2013-05-24 01:52:00,79.0,68.4,30.09,NNE,22,2.0,5.0,70,0.00,,,0.00,WUHU21623XXSP,2013-05-24 06:52:00,
2013-05-24 01:55:00,79.0,68.4,30.09,East,90,4.0,7.0,70,0.00,,,0.00,WUHU21623XXSP,2013-05-24 06:55:00,
2013-05-24 01:56:00,79.0,68.4,30.08,ESE,112,9.0,9.0,70,0.00,,,0.00,WUHU21623XXSP,2013-05-24 06:56:00,
2013-05-24 01:57:00,78.8,68.2,30.09,ESE,123,8.0,9.0,70,0.00,,,0.00,WUHU21623XXSP,2013-05-24 06:57:00,
2013-05-24 02:01:00,78.6,68.0,30.08,SE,135,4.0,9.0,70,0.00,,,0.00,WUHU21623XXSP,2013-05-24 07:01:00,
2013-05-24 02:02:00,78.6,68.0,30.08,East,90,5.0,9.0,70,0.00,,,0.00,WUHU21623XXSP,2013-05-24 07:02:00,
2013-05-24 02:03:00,78.6,68.0,30.08,ESE,114,5.0,9.0,70,0.00,,,0.00,WUHU21623XXSP,2013-05-24 07:03:00,
2013-05-24 02:06:00,78.6,68.0,30.08,ESE,122,7.0,9.0,70,0.00,,,0.00,WUHU21623XXSP,2013-05-24 07:06:00,
2013-05-24 02:07:00,78.6,68.0,30.08,SE,124,6.0,7.0,70,0.00,,,0.00,WUHU21623XXSP,2013-05-24 07:07:00,
2013-05-24 02:08:00,78.6,68.0,30.08,ESE,103,4.0,7.0,70,0.00,,,0.00,WUHU21623XXSP,2013-05-24 07:08:00,
2013-05-24 02:11:00,78.6,68.0,30.08,ESE,102,5.0,7.0,70,0.00,,,0.00,WUHU21623XXSP,2013-05-24 07:11:00,
2013-05-24 02:12:00,78.6,68.0,30.08,ESE,102,5.0,7.0,70,0.00,,,0.00,WUHU21623XXSP,2013-05-24 07:12:00,
2013-05-24 02:13:00,78.6,68.0,30.08,ESE,112,4.0,7.0,70,0.00,,,0.00,WUHU21623XXSP,2013-05-24 07:13:00,
2013-05-24 02:14:00,78.6,68.0,30.08,ESE,112,6.0,7.0,70,0.00,,,0.00,WUHU21623XXSP,2013-05-24 07:14:00,
2013-05-24 02:16:00,78.6,68.0,30.08,ESE,103,6.0,7.0,70,0.00,,,0.00,WUHU21623XXSP,2013-05-24 07:16:00,
2013-05-24 02:17:00,78.6,68.0,30.08,East,101,5.0,7.0,70,0.00,,,0.00,WUHU21623XXSP,2013-05-24 07:17:00,
2013-05-24 02:18:00,78.6,68.0,30.08,ENE,67,6.0,7.0,70,0.00,,,0.00,WUHU21623XXSP,2013-05-24 07:18:00,
2013-05-24 02:19:00,78.6,68.0,30.08,East,91,5.0,7.0,70,0.00,,,0.00,WUHU21623XXSP,2013-05-24 07:19:00,
2013-05-24 02:21:00,78.6,68.0,30.08,ESE,112,7.0,7.0,70,0.00,,,0.00,WUHU21623XXSP,2013-05-24 07:21:00,
2013-05-24 02:22:00,78.6,68.0,30.08,ESE,112,7.0,7.0,70,0.00,,,0.00,WUHU21623XXSP,2013-05-24 07:22:00,
2013-05-24 02:23:00,78.6,68.0,30.08,East,90,7.0,7.0,70,0.00,,,0.00,WUHU21623XXSP,2013-05-24 07:23:00,
2013-05-24 02:24:00,78.6,68.0,30.08,East,90,5.0,7.0,70,0.00,,,0.00,WUHU21623XXSP,2013-05-24 07:24:00,
2013-05-24 02:26:00,78.6,68.0,30.09,ESE,112,3.0,7.0,70,0.00,,,0.00,WUHU21623XXSP,2013-05-24 07:26:00,
2013-05-24 02:27:00,78.6,68.0,30.09,ESE,112,3.0,7.0,70,0.00,,,0.00,WUHU21623XXSP,2013-05-24 07:27:00,
2013-05-24 02:28:00,78.6,68.0,30.09,East,90,4.0,7.0,70,0.00,,,0.00,WUHU21623XXSP,2013-05-24 07:28:00,
2013-05-24 02:30:00,78.6,68.0,30.09,ESE,123,5.0,7.0,70,0.00,,,0.00,WUHU21623XXSP,2013-05-24 07:30:00,
2013-05-24 02:32:00,78.6,68.0,30.09,SSE,157,1.0,7.0,70,0.00,,,0.00,WUHU21623XXSP,2013-05-24 07:32:00,
2013-05-24 02:33:00,78.6,68.0,30.09,SE,135,6.0,6.0,70,0.00,,,0.00,WUHU21623XXSP,2013-05-24 07:33:00,
2013-05-24 02:35:00,78.6,68.0,30.09,SE,135,4.0,6.0,70,0.00,,,0.00,WUHU21623XXSP,2013-05-24 07:35:00,
2013-05-24 02:37:00,78.4,67.9,30.09,SE,135,2.0,6.0,70,0.00,,,0.00,WUHU21623XXSP,2013-05-24 07:37:00,
2013-05-24 02:38:00,78.4,67.9,30.09,South,180,3.0,6.0,70,0.00,,,0.00,WUHU21623XXSP,2013-05-24 07:38:00,
2013-05-24 02:39:00,78.4,67.9,30.09,South,180,3.0,6.0,70,0.00,,,0.00,WUHU21623XXSP,2013-05-24 07:39:00,
2013-05-24 02:40:00,78.4,67.9,30.09,South,180,3.0,6.0,70,0.00,,,0.00,WUHU21623XXSP,2013-05-24 07:40:00,
2013-05-24 02:42:00,78.4,67.9,30.09,ESE,112,3.0,6.0,70,0.00,,,0.00,WUHU21623XXSP,2013-05-24 07:42:00,
2013-05-24 02:43:00,78.4,67.9,30.09,ESE,112,2.0,6.0,70,0.00,,,0.00,WUHU21623XXSP,2013-05-24 07:43:00,
2013-05-24 02:44:00,78.4,67.9,30.09,ESE,112,2.0,3.0,70,0.00,,,0.00,WUHU21623XXSP,2013-05-24 07:44:00,
2013-05-24 02:45:00,78.4,67.9,30.09,ESE,112,2.0,3.0,70,0.00,,,0.00,WUHU21623XXSP,2013-05-24 07:45:00,
2013-05-24 02:47:00,78.4,67.9,30.09,ESE,112,3.0,3.0,70,0.00,,,0.00,WUHU21623XXSP,2013-05-24 07:47:00,
2013-05-24 02:48:00,78.4,67.9,30.09,ESE,112,3.0,3.0,70,0.00,,,0.00,WUHU21623XXSP,2013-05-24 07:48:00,
2013-05-24 02:49:00,78.4,67.9,30.10,SE,135,5.0,5.0,70,0.00,,,0.00,WUHU21623XXSP,2013-05-24 07:49:00,
2013-05-24 02:50:00,78.4,67.9,30.10,SE,135,5.0,5.0,70,0.00,,,0.00,WUHU21623XXSP,2013-05-24 07:50:00,
2013-05-24 02:52:00,78.4,67.9,30.10,SE,135,3.0,5.0,70,0.00,,,0.00,WUHU21623XXSP,2013-05-24 07:52:00,
2013-05-24 02:53:00,78.4,67.9,30.10,ESE,117,2.0,5.0,70,0.00,,,0.00,WUHU21623XXSP,2013-05-24 07:53:00,
2013-05-24 02:54:00,78.4,67.9,30.10,ESE,112,3.0,5.0,70,0.00,,,0.00,WUHU21623XXSP,2013-05-24 07:54:00,
2013-05-24 02:55:00,78.4,67.9,30.10,East,90,3.0,5.0,70,0.00,,,0.00,WUHU21623XXSP,2013-05-24 07:55:00,
2013-05-24 02:58:00,78.4,67.9,30.10,SE,135,0.0,5.0,70,0.00,,,0.00,WUHU21623XXSP,2013-05-24 07:58:00,
2013-05-24 02:59:00,78.4,67.9,30.10,ESE,112,0.0,5.0,70,0.00,,,0.00,WUHU21623XXSP,2013-05-24 07:59:00,
2013-05-24 03:01:00,78.4,67.9,30.10,ESE,112,1.0,3.0,70,0.00,,,0.00,WUHU21623XXSP,2013-05-24 08:01:00,
2013-05-24 03:03:00,78.4,67.9,30.10,East,90,0.0,3.0,70,0.00,,,0.00,WUHU21623XXSP,2013-05-24 08:03:00,
2013-05-24 03:04:00,78.4,67.9,30.10,East,90,0.0,3.0,70,0.00,,,0.00,WUHU21623XXSP,2013-05-24 08:04:00,
2013-05-24 03:06:00,78.4,67.9,30.10,ESE,112,2.0,2.0,70,0.00,,,0.00,WUHU21623XXSP,2013-05-24 08:06:00,
2013-05-24 03:08:00,78.4,67.9,30.10,NE,45,2.0,2.0,70,0.00,,,0.00,WUHU21623XXSP,2013-05-24 08:08:00,
2013-05-24 03:10:00,78.4,67.9,30.10,ENE,67,3.0,3.0,70,0.00,,,0.00,WUHU21623XXSP,2013-05-24 08:10:00,
2013-05-24 03:11:00,78.6,68.0,30.10,ENE,67,3.0,3.0,70,0.00,,,0.00,WUHU21623XXSP,2013-05-24 08:11:00,
2013-05-24 03:13:00,78.4,67.9,30.10,ENE,67,2.0,3.0,70,0.00,,,0.00,WUHU21623XXSP,2013-05-24 08:13:00,
2013-05-24 03:14:00,78.4,67.9,30.10,ENE,67,2.0,3.0,70,0.00,,,0.00,WUHU21623XXSP,2013-05-24 08:14:00,
2013-05-24 03:15:00,78.4,67.9,30.10,ENE,67,4.0,4.0,70,0.00,,,0.00,WUHU21623XXSP,2013-05-24 08:15:00,
2013-05-24 03:17:00,78.4,67.9,30.10,ENE,67,2.0,4.0,70,0.00,,,0.00,WUHU21623XXSP,2013-05-24 08:17:00,
2013-05-24 03:18:00,78.4,67.9,30.10,East,81,1.0,4.0,70,0.00,,,0.00,WUHU21623XXSP,2013-05-24 08:18:00,
2013-05-24 03:19:00,78.4,67.9,30.10,ESE,112,1.0,4.0,70,0.00,,,0.00,WUHU21623XXSP,2013-05-24 08:19:00,
2013-05-24 03:20:00,78.4,67.9,30.10,ESE,112,1.0,4.0,70,0.00,,,0.00,WUHU21623XXSP,2013-05-24 08:20:00,
2013-05-24 03:22:00,78.4,67.9,30.10,NE,45,2.0,4.0,70,0.00,,,0.00,WUHU21623XXSP,2013-05-24 08:22:00,
2013-05-24 03:24:00,78.4,67.9,30.10,NE,45,2.0,4.0,70,0.00,,,0.00,WUHU21623XXSP,2013-05-24 08:24:00,
2013-05-24 03:25:00,78.4,67.9,30.10,NNE,22,3.0,3.0,70,0.00,,,0.00,WUHU21623XXSP,2013-05-24 08:25:00,
2013-05-24 03:27:00,78.4,67.9,30.10,NNE,22,3.0,3.0,70,0.00,,,0.00,WUHU21623XXSP,2013-05-24 08:27:00,
2013-05-24 03:29:00,78.4,67.9,30.10,NNE,22,3.0,3.0,70,0.00,,,0.00,WUHU21623XXSP,2013-05-24 08:29:00,
2013-05-24 03:30:00,78.4,67.9,30.10,East,90,2.0,3.0,70,0.00,,,0.00,WUHU21623XXSP,2013-05-24 08:30:00,
2013-05-24 03:31:00,78.4,67.9,30.11,East,80,2.0,3.0,70,0.00,,,0.00,WUHU21623XXSP,2013-05-24 08:31:00,
2013-05-24 03:32:00,78.4,67.9,30.11,ENE,67,2.0,3.0,70,0.00,,,0.00,WUHU21623XXSP,2013-05-24 08:32:00,
2013-05-24 03:34:00,78.4,67.9,30.11,ENE,67,2.0,3.0,70,0.00,,,0.00,WUHU21623XXSP,2013-05-24 08:34:00,
2013-05-24 03:36:00,78.4,67.9,30.11,East,90,2.0,2.0,70,0.00,,,0.00,WUHU21623XXSP,2013-05-24 08:36:00,
2013-05-24 03:37:00,78.4,67.9,30.11,East,90,1.0,2.0,70,0.00,,,0.00,WUHU21623XXSP,2013-05-24 08:37:00,
2013-05-24 03:39:00,78.4,67.9,30.11,ESE,112,3.0,3.0,70,0.00,,,0.00,WUHU21623XXSP,2013-05-24 08:39:00,
2013-05-24 03:40:00,78.4,67.9,30.11,ESE,112,3.0,3.0,70,0.00,,,0.00,WUHU21623XXSP,2013-05-24 08:40:00,
2013-05-24 03:41:00,78.3,67.7,30.11,ESE,112,3.0,3.0,70,0.00,,,0.00,WUHU21623XXSP,2013-05-24 08:41:00,
2013-05-24 03:42:00,78.1,67.5,30.11,ESE,112,3.0,3.0,70,0.00,,,0.00,WUHU21623XXSP,2013-05-24 08:42:00,
2013-05-24 03:44:00,78.1,67.5,30.11,ESE,112,2.0,3.0,70,0.00,,,0.00,WUHU21623XXSP,2013-05-24 08:44:00,
2013-05-24 03:45:00,78.1,67.5,30.11,ESE,112,2.0,3.0,70,0.00,,,0.00,WUHU21623XXSP,2013-05-24 08:45:00,
2013-05-24 03:46:00,78.1,67.5,30.11,ESE,112,2.0,3.0,70,0.00,,,0.00,WUHU21623XXSP,2013-05-24 08:46:00,
2013-05-24 03:47:00,78.1,67.5,30.11,SE,135,4.0,4.0,70,0.00,,,0.00,WUHU21623XXSP,2013-05-24 08:47:00,
2013-05-24 03:50:00,78.1,67.5,30.11,ESE,112,4.0,4.0,70,0.00,,,0.00,WUHU21623XXSP,2013-05-24 08:50:00,
2013-05-24 03:51:00,78.1,67.5,30.11,ESE,112,3.0,4.0,70,0.00,,,0.00,WUHU21623XXSP,2013-05-24 08:51:00,
2013-05-24 03:52:00,78.1,67.5,30.10,ESE,112,3.0,4.0,70,0.00,,,0.00,WUHU21623XXSP,2013-05-24 08:52:00,
2013-05-24 03:55:00,77.9,67.4,30.10,SE,135,3.0,4.0,70,0.00,,,0.00,WUHU21623XXSP,2013-05-24 08:55:00,
2013-05-24 03:56:00,77.9,67.4,30.10,SE,127,2.0,4.0,70,0.00,,,0.00,WUHU21623XXSP,2013-05-24 08:56:00,
2013-05-24 03:57:00,77.9,67.7,30.10,SE,135,2.0,4.0,71,0.00,,,0.00,WUHU21623XXSP,2013-05-24 08:57:00,
2013-05-24 04:00:00,77.7,67.6,30.10,East,80,4.0,5.0,71,0.00,,,0.00,WUHU21623XXSP,2013-05-24 09:00:00,
2013-05-24 04:01:00,77.7,67.6,30.11,SE,135,2.0,5.0,71,0.00,,,0.00,WUHU21623XXSP,2013-05-24 09:01:00,
2013-05-24 04:02:00,77.7,67.6,30.11,SE,135,2.0,5.0,71,0.00,,,0.00,WUHU21623XXSP,2013-05-24 09:02:00,
2013-05-24 04:05:00,77.7,67.6,30.11,ESE,112,3.0,5.0,71,0.00,,,0.00,WUHU21623XXSP,2013-05-24 09:05:00,
2013-05-24 04:06:00,77.7,67.6,30.10,SE,135,0.0,5.0,71,0.00,,,0.00,WUHU21623XXSP,2013-05-24 09:06:00,
2013-05-24 04:07:00,77.7,67.6,30.10,SE,135,0.0,5.0,71,0.00,,,0.00,WUHU21623XXSP,2013-05-24 09:07:00,
2013-05-24 04:10:00,77.7,67.6,30.10,East,90,3.0,3.0,71,0.00,,,0.00,WUHU21623XXSP,2013-05-24 09:10:00,
2013-05-24 04:12:00,77.7,67.6,30.10,East,90,4.0,4.0,71,0.00,,,0.00,WUHU21623XXSP,2013-05-24 09:12:00,
2013-05-24 04:13:00,77.7,67.6,30.10,East,90,4.0,4.0,71,0.00,,,0.00,WUHU21623XXSP,2013-05-24 09:13:00,
2013-05-24 04:15:00,77.7,67.6,30.10,East,90,4.0,4.0,71,0.00,,,0.00,WUHU21623XXSP,2013-05-24 09:15:00,
2013-05-24 04:17:00,77.7,67.6,30.11,East,90,3.0,4.0,71,0.00,,,0.00,WUHU21623XXSP,2013-05-24 09:17:00,
2013-05-24 04:18:00,77.7,67.6,30.11,ENE,78,2.0,4.0,71,0.00,,,0.00,WUHU21623XXSP,2013-05-24 09:18:00,
2013-05-24 04:20:00,77.7,67.6,30.11,East,79,2.0,4.0,71,0.00,,,0.00,WUHU21623XXSP,2013-05-24 09:20:00,
2013-05-24 04:21:00,77.5,67.4,30.11,East,90,3.0,4.0,71,0.00,,,0.00,WUHU21623XXSP,2013-05-24 09:21:00,
2013-05-24 04:22:00,77.5,67.4,30.11,East,90,3.0,3.0,71,0.00,,,0.00,WUHU21623XXSP,2013-05-24 09:22:00,
2013-05-24 04:23:00,77.5,67.4,30.11,East,90,0.0,3.0,71,0.00,,,0.00,WUHU21623XXSP,2013-05-24 09:23:00,
2013-05-24 04:26:00,77.5,67.4,30.11,ESE,112,1.0,3.0,71,0.00,,,0.00,WUHU21623XXSP,2013-05-24 09:26:00,
2013-05-24 04:27:00,77.5,67.4,30.11,ESE,112,1.0,3.0,71,0.00,,,0.00,WUHU21623XXSP,2013-05-24 09:27:00,
2013-05-24 04:28:00,77.5,67.4,30.11,ESE,112,1.0,3.0,71,0.00,,,0.00,WUHU21623XXSP,2013-05-24 09:28:00,
2013-05-24 04:29:00,77.5,67.4,30.11,SE,135,0.0,3.0,71,0.00,,,0.00,WUHU21623XXSP,2013-05-24 09:29:00,
2013-05-24 04:31:00,77.5,67.4,30.11,ESE,112,0.0,1.0,71,0.00,,,0.00,WUHU21623XXSP,2013-05-24 09:31:00,
2013-05-24 04:33:00,77.5,67.4,30.11,ESE,112,2.0,2.0,71,0.00,,,0.00,WUHU21623XXSP,2013-05-24 09:33:00,
2013-05-24 04:34:00,77.5,67.4,30.11,ESE,112,2.0,2.0,71,0.00,,,0.00,WUHU21623XXSP,2013-05-24 09:34:00,
2013-05-24 04:36:00,77.5,67.4,30.11,East,90,3.0,3.0,71,0.00,,,0.00,WUHU21623XXSP,2013-05-24 09:36:00,
2013-05-24 04:38:00,77.5,67.4,30.11,East,90,0.0,3.0,71,0.00,,,0.00,WUHU21623XXSP,2013-05-24 09:38:00,
2013-05-24 04:39:00,77.5,67.4,30.11,East,90,0.0,3.0,71,0.00,,,0.00,WUHU21623XXSP,2013-05-24 09:39:00,
2013-05-24 04:41:00,77.5,67.4,30.11,East,90,1.0,3.0,71,0.00,,,0.00,WUHU21623XXSP,2013-05-24 09:41:00,
2013-05-24 04:42:00,77.5,67.4,30.11,East,90,1.0,3.0,71,0.00,,,0.00,WUHU21623XXSP,2013-05-24 09:42:00,
2013-05-24 04:43:00,77.5,67.4,30.11,East,90,1.0,3.0,71,0.00,,,0.00,WUHU21623XXSP,2013-05-24 09:43:00,
2013-05-24 04:45:00,77.5,67.4,30.11,East,90,1.0,1.0,71,0.00,,,0.00,WUHU21623XXSP,2013-05-24 09:45:00,
2013-05-24 04:56:00,77.5,67.8,30.12,ESE,112,2.0,2.0,72,0.00,,,0.00,WUHU21623XXSP,2013-05-24 09:56:00,
2013-05-24 04:57:00,77.5,67.8,30.12,ESE,112,2.0,2.0,72,0.00,,,0.00,WUHU21623XXSP,2013-05-24 09:57:00,
2013-05-24 05:01:00,77.5,67.4,30.11,East,90,2.0,2.0,71,0.00,,,0.00,WUHU21623XXSP,2013-05-24 10:01:00,
2013-05-24 05:02:00,77.5,67.4,30.11,East,90,2.0,2.0,71,0.00,,,0.00,WUHU21623XXSP,2013-05-24 10:02:00,
2013-05-24 05:06:00,77.5,67.4,30.11,East,90,2.0,2.0,71,0.00,,,0.00,WUHU21623XXSP,2013-05-24 10:06:00,
2013-05-24 05:07:00,77.5,67.4,30.11,East,90,2.0,2.0,71,0.00,,,0.00,WUHU21623XXSP,2013-05-24 10:07:00,
2013-05-24 05:11:00,77.5,67.8,30.11,ESE,112,2.0,2.0,72,0.00,,,0.00,WUHU21623XXSP,2013-05-24 10:11:00,
2013-05-24 05:12:00,77.5,67.8,30.11,ESE,112,2.0,2.0,72,0.00,,,0.00,WUHU21623XXSP,2013-05-24 10:12:00,
2013-05-24 05:17:00,77.5,67.4,30.11,East,90,2.0,4.0,71,0.00,,,0.00,WUHU21623XXSP,2013-05-24 10:17:00,
2013-05-24 05:22:00,77.4,67.6,30.11,ENE,67,2.0,4.0,72,0.00,,,0.00,WUHU21623XXSP,2013-05-24 10:22:00,
2013-05-24 05:23:00,77.4,67.6,30.11,ENE,67,2.0,4.0,72,0.00,,,0.00,WUHU21623XXSP,2013-05-24 10:23:00,
2013-05-24 05:27:00,77.4,67.6,30.11,ENE,67,0.0,2.0,72,0.00,,,0.00,WUHU21623XXSP,2013-05-24 10:27:00,
2013-05-24 05:28:00,77.4,67.6,30.11,ESE,112,2.0,2.0,72,0.00,,,0.00,WUHU21623XXSP,2013-05-24 10:28:00,
2013-05-24 05:32:00,77.4,67.6,30.11,ESE,112,0.0,2.0,72,0.00,,,0.00,WUHU21623XXSP,2013-05-24 10:32:00,
2013-05-24 05:33:00,77.2,67.5,30.11,East,90,2.0,2.0,72,0.00,,,0.00,WUHU21623XXSP,2013-05-24 10:33:00,
2013-05-24 05:37:00,77.2,67.5,30.11,East,90,3.0,3.0,72,0.00,,,0.00,WUHU21623XXSP,2013-05-24 10:37:00,
2013-05-24 05:38:00,77.2,67.5,30.12,East,79,3.0,3.0,72,0.00,,,0.00,WUHU21623XXSP,2013-05-24 10:38:00,
2013-05-24 05:42:00,77.2,67.5,30.11,ESE,112,3.0,4.0,72,0.00,,,0.00,WUHU21623XXSP,2013-05-24 10:42:00,
2013-05-24 05:43:00,77.2,67.5,30.11,ESE,112,3.0,4.0,72,0.00,,,0.00,WUHU21623XXSP,2013-05-24 10:43:00,
2013-05-24 05:47:00,77.2,67.5,30.11,ESE,112,3.0,4.0,72,0.00,,,0.00,WUHU21623XXSP,2013-05-24 10:47:00,
2013-05-24 05:48:00,77.0,67.3,30.11,ESE,112,4.0,4.0,72,0.00,,,0.00,WUHU21623XXSP,2013-05-24 10:48:00,
2013-05-24 05:49:00,77.0,67.3,30.11,East,101,4.0,4.0,72,0.00,,,0.00,WUHU21623XXSP,2013-05-24 10:49:00,
2013-05-24 05:52:00,76.8,67.1,30.12,ESE,112,3.0,4.0,72,0.00,,,0.00,WUHU21623XXSP,2013-05-24 10:52:00,
2013-05-24 05:53:00,76.8,67.1,30.12,ESE,112,3.0,4.0,72,0.00,,,0.00,WUHU21623XXSP,2013-05-24 10:53:00,
2013-05-24 05:54:00,76.8,67.1,30.12,ENE,67,2.0,4.0,72,0.00,,,0.00,WUHU21623XXSP,2013-05-24 10:54:00,
2013-05-24 05:58:00,76.8,67.5,30.12,ESE,112,3.0,3.0,73,0.00,,,0.00,WUHU21623XXSP,2013-05-24 10:58:00,
2013-05-24 05:59:00,76.8,67.5,30.12,ESE,112,3.0,3.0,73,0.00,,,0.00,WUHU21623XXSP,2013-05-24 10:59:00,
2013-05-24 06:00:00,76.8,67.5,30.12,ESE,112,3.0,3.0,73,0.00,,,0.00,WUHU21623XXSP,2013-05-24 11:00:00,
2013-05-24 06:03:00,76.8,67.5,30.12,ENE,67,3.0,3.0,73,0.00,,,0.00,WUHU21623XXSP,2013-05-24 11:03:00,
2013-05-24 06:04:00,76.8,67.5,30.12,East,90,3.0,3.0,73,0.00,,,0.00,WUHU21623XXSP,2013-05-24 11:04:00,
2013-05-24 06:05:00,76.8,67.5,30.12,East,90,3.0,3.0,73,0.00,,,0.00,WUHU21623XXSP,2013-05-24 11:05:00,
2013-05-24 06:08:00,76.6,67.3,30.12,ESE,112,0.0,3.0,73,0.00,,,0.00,WUHU21623XXSP,2013-05-24 11:08:00,
2013-05-24 06:09:00,76.6,67.3,30.12,ESE,112,0.0,3.0,73,0.00,,,0.00,WUHU21623XXSP,2013-05-24 11:09:00,
2013-05-24 06:11:00,76.6,67.3,30.13,East,90,2.0,3.0,73,0.00,,,0.00,WUHU21623XXSP,2013-05-24 11:11:00,
2013-05-24 06:13:00,76.6,67.3,30.13,East,90,2.0,3.0,73,0.00,,,0.00,WUHU21623XXSP,2013-05-24 11:13:00,
2013-05-24 06:14:00,76.6,67.3,30.13,East,90,2.0,3.0,73,0.00,,,0.00,WUHU21623XXSP,2013-05-24 11:14:00,
2013-05-24 06:16:00,76.6,67.3,30.13,ENE,67,4.0,4.0,73,0.00,,,0.00,WUHU21623XXSP,2013-05-24 11:16:00,
2013-05-24 06:19:00,76.6,67.3,30.13,ENE,67,3.0,5.0,73,0.00,,,0.00,WUHU21623XXSP,2013-05-24 11:19:00,
2013-05-24 06:20:00,76.6,67.3,30.13,East,83,2.0,5.0,73,0.00,,,0.00,WUHU21623XXSP,2013-05-24 11:20:00,
2013-05-24 06:21:00,76.6,67.3,30.13,ESE,112,2.0,5.0,73,0.00,,,0.00,WUHU21623XXSP,2013-05-24 11:21:00,
2013-05-24 06:24:00,76.6,67.3,30.13,ESE,112,3.0,5.0,73,0.00,,,0.00,WUHU21623XXSP,2013-05-24 11:24:00,
2013-05-24 06:25:00,76.6,67.3,30.13,East,90,2.0,5.0,73,0.00,,,0.00,WUHU21623XXSP,2013-05-24 11:25:00,
2013-05-24 06:27:00,76.6,67.3,30.13,ESE,103,2.0,3.0,73,0.00,,,0.00,WUHU21623XXSP,2013-05-24 11:27:00,
2013-05-24 06:29:00,76.6,67.3,30.13,ESE,112,5.0,5.0,73,0.00,,,0.00,WUHU21623XXSP,2013-05-24 11:29:00,
2013-05-24 06:30:00,76.6,67.3,30.13,ESE,112,5.0,5.0,73,0.00,,,0.00,WUHU21623XXSP,2013-05-24 11:30:00,
2013-05-24 06:33:00,76.6,67.3,30.14,ESE,112,3.0,5.0,73,0.00,,,0.00,WUHU21623XXSP,2013-05-24 11:33:00,
2013-05-24 06:34:00,76.6,67.3,30.14,ENE,67,4.0,5.0,73,0.00,,,0.00,WUHU21623XXSP,2013-05-24 11:34:00,
2013-05-24 06:35:00,76.6,67.7,30.14,ENE,78,4.0,5.0,74,0.00,,,0.00,WUHU21623XXSP,2013-05-24 11:35:00,
2013-05-24 06:38:00,76.5,67.6,30.14,East,90,2.0,4.0,74,0.00,,,0.00,WUHU21623XXSP,2013-05-24 11:38:00,
2013-05-24 06:39:00,76.5,67.6,30.14,East,90,2.0,4.0,74,0.00,,,0.00,WUHU21623XXSP,2013-05-24 11:39:00,
2013-05-24 06:40:00,76.5,67.6,30.14,ENE,77,3.0,4.0,74,0.00,,,0.00,WUHU21623XXSP,2013-05-24 11:40:00,
2013-05-24 06:43:00,76.5,67.6,30.14,NE,45,2.0,4.0,74,0.00,,,0.00,WUHU21623XXSP,2013-05-24 11:43:00,
2013-05-24 06:44:00,76.5,67.6,30.14,ESE,112,2.0,3.0,74,0.00,,,0.00,WUHU21623XXSP,2013-05-24 11:44:00,
2013-05-24 06:45:00,76.5,67.6,30.14,ESE,112,2.0,3.0,74,0.00,,,0.00,WUHU21623XXSP,2013-05-24 11:45:00,
2013-05-24 06:46:00,76.5,67.6,30.14,ENE,67,0.0,3.0,74,0.00,,,0.00,WUHU21623XXSP,2013-05-24 11:46:00,
2013-05-24 06:48:00,76.5,67.6,30.14,ENE,67,3.0,3.0,74,0.00,,,0.00,WUHU21623XXSP,2013-05-24 11:48:00,
2013-05-24 06:50:00,76.5,67.6,30.14,East,79,3.0,3.0,74,0.00,,,0.00,WUHU21623XXSP,2013-05-24 11:50:00,
2013-05-24 06:51:00,76.3,67.4,30.14,ENE,67,4.0,4.0,74,0.00,,,0.00,WUHU21623XXSP,2013-05-24 11:51:00,
2013-05-24 06:52:00,76.5,67.6,30.14,ESE,112,2.0,2.0,74,0.00,,,0.00,WUHU21623XXSP,2013-05-24 11:52:00,
2013-05-24 06:53:00,76.5,67.6,30.14,ESE,112,2.0,4.0,74,0.00,,,0.00,WUHU21623XXSP,2013-05-24 11:53:00,
2013-05-24 06:55:00,76.5,67.6,30.14,ESE,112,2.0,4.0,74,0.00,,,0.00,WUHU21623XXSP,2013-05-24 11:55:00,
2013-05-24 06:56:00,76.5,67.6,30.14,ESE,112,2.0,4.0,74,0.00,,,0.00,WUHU21623XXSP,2013-05-24 11:56:00,
2013-05-24 06:57:00,76.5,67.6,30.14,ESE,112,2.0,4.0,74,0.00,,,0.00,WUHU21623XXSP,2013-05-24 11:57:00,
2013-05-24 06:58:00,76.5,67.6,30.14,ESE,112,2.0,4.0,74,0.00,,,0.00,WUHU21623XXSP,2013-05-24 11:58:00,
2013-05-24 07:00:00,76.5,67.6,30.14,ESE,112,2.0,4.0,74,0.00,,,0.00,WUHU21623XXSP,2013-05-24 12:00:00,
2013-05-24 07:01:00,76.5,67.6,30.14,ESE,112,2.0,2.0,74,0.00,,,0.00,WUHU21623XXSP,2013-05-24 12:01:00,
2013-05-24 07:02:00,76.5,67.6,30.14,ESE,112,2.0,2.0,74,0.00,,,0.00,WUHU21623XXSP,2013-05-24 12:02:00,
2013-05-24 12:18:00,82.6,71.3,30.22,NNE,22,2.0,2.0,69,0.00,,,0.00,WUHU21623XXSP,2013-05-24 17:18:00,
2013-05-24 12:23:00,82.6,71.3,30.22,SSE,157,4.0,4.0,69,0.00,,,0.00,WUHU21623XXSP,2013-05-24 17:23:00,
2013-05-24 12:28:00,82.6,71.3,30.22,ESE,112,8.0,10.0,69,0.00,,,0.00,WUHU21623XXSP,2013-05-24 17:28:00,
2013-05-24 12:29:00,82.6,71.3,30.22,ESE,118,4.0,10.0,69,0.00,,,0.00,WUHU21623XXSP,2013-05-24 17:29:00,
2013-05-24 12:33:00,82.6,70.9,30.21,East,90,6.0,10.0,68,0.00,,,0.00,WUHU21623XXSP,2013-05-24 17:33:00,
2013-05-24 12:34:00,82.6,70.9,30.21,East,90,6.0,10.0,68,0.00,,,0.00,WUHU21623XXSP,2013-05-24 17:34:00,
2013-05-24 12:38:00,82.8,71.1,30.21,East,94,6.0,10.0,68,0.00,,,0.00,WUHU21623XXSP,2013-05-24 17:38:00,
2013-05-24 12:39:00,82.9,71.2,30.21,ESE,112,2.0,10.0,68,0.00,,,0.00,WUHU21623XXSP,2013-05-24 17:39:00,
2013-05-24 12:43:00,82.9,71.2,30.22,NNE,22,6.0,10.0,68,0.00,,,0.00,WUHU21623XXSP,2013-05-24 17:43:00,
2013-05-24 12:44:00,83.1,71.4,30.21,ESE,112,5.0,10.0,68,0.00,,,0.00,WUHU21623XXSP,2013-05-24 17:44:00,
2013-05-24 12:48:00,83.1,71.4,30.21,SE,135,8.0,8.0,68,0.00,,,0.00,WUHU21623XXSP,2013-05-24 17:48:00,
2013-05-24 12:49:00,83.1,71.4,30.21,SE,135,8.0,8.0,68,0.00,,,0.00,WUHU21623XXSP,2013-05-24 17:49:00,
2013-05-24 12:54:00,83.3,71.6,30.21,SSE,157,0.0,8.0,68,0.00,,,0.00,WUHU21623XXSP,2013-05-24 17:54:00,
2013-05-24 12:59:00,83.5,71.3,30.21,SSE,157,4.0,7.0,67,0.00,,,0.00,WUHU21623XXSP,2013-05-24 17:59:00,
2013-05-24 13:00:00,83.5,71.3,30.21,SE,135,8.0,8.0,67,0.00,,,0.00,WUHU21623XXSP,2013-05-24 18:00:00,
2013-05-24 13:04:00,83.5,70.9,30.21,SE,135,10.0,10.0,66,0.00,,,0.00,WUHU21623XXSP,2013-05-24 18:04:00,
2013-05-24 13:05:00,83.5,70.9,30.20,SE,135,10.0,10.0,66,0.00,,,0.00,WUHU21623XXSP,2013-05-24 18:05:00,
2013-05-24 13:09:00,83.5,70.9,30.21,ENE,67,3.0,10.0,66,0.00,,,0.00,WUHU21623XXSP,2013-05-24 18:09:00,
2013-05-24 13:10:00,83.5,70.9,30.21,SE,135,5.0,10.0,66,0.00,,,0.00,WUHU21623XXSP,2013-05-24 18:10:00,
2013-05-24 13:14:00,83.5,70.9,30.21,SE,135,5.0,10.0,66,0.00,,,0.00,WUHU21623XXSP,2013-05-24 18:14:00,
2013-05-24 13:15:00,83.5,70.9,30.21,ESE,112,7.0,10.0,66,0.00,,,0.00,WUHU21623XXSP,2013-05-24 18:15:00,
2013-05-24 13:16:00,83.5,71.2,30.21,ESE,115,7.0,9.0,66,0.00,,,0.00,WUHU21623XXSP,2013-05-24 18:16:00,
2013-05-24 13:19:00,83.5,70.9,30.21,SSE,157,10.0,10.0,66,0.00,,,0.00,WUHU21623XXSP,2013-05-24 18:19:00,
2013-05-24 13:20:00,83.5,70.9,30.21,SSE,157,10.0,10.0,66,0.00,,,0.00,WUHU21623XXSP,2013-05-24 18:20:00,
2013-05-24 13:21:00,83.5,70.9,30.21,SSE,155,6.0,10.0,66,0.00,,,0.00,WUHU21623XXSP,2013-05-24 18:21:00,
2013-05-24 13:24:00,83.7,71.1,30.21,ESE,112,8.0,10.0,66,0.00,,,0.00,WUHU21623XXSP,2013-05-24 18:24:00,
2013-05-24 13:25:00,83.5,70.9,30.21,SSE,157,9.0,10.0,66,0.00,,,0.00,WUHU21623XXSP,2013-05-24 18:25:00,
2013-05-24 13:26:00,83.5,70.9,30.21,SSE,157,9.0,10.0,66,0.00,,,0.00,WUHU21623XXSP,2013-05-24 18:26:00,
2013-05-24 13:29:00,83.5,70.9,30.21,SE,125,9.0,10.0,66,0.00,,,0.00,WUHU21623XXSP,2013-05-24 18:29:00,
2013-05-24 13:30:00,83.5,70.9,30.21,ESE,112,8.0,10.0,66,0.00,,,0.00,WUHU21623XXSP,2013-05-24 18:30:00,
2013-05-24 13:31:00,83.7,71.1,30.21,ESE,103,7.0,10.0,66,0.00,,,0.00,WUHU21623XXSP,2013-05-24 18:31:00,
2013-05-24 13:35:00,83.7,71.1,30.20,ESE,112,10.0,10.0,66,0.00,,,0.00,WUHU21623XXSP,2013-05-24 18:35:00,
2013-05-24 13:36:00,83.7,71.1,30.21,ESE,112,7.0,10.0,66,0.00,,,0.00,WUHU21623XXSP,2013-05-24 18:36:00,
2013-05-24 13:40:00,83.8,71.2,30.20,ENE,67,6.0,10.0,66,0.00,,,0.00,WUHU21623XXSP,2013-05-24 18:40:00,
2013-05-24 13:41:00,83.8,70.8,30.20,East,90,10.0,10.0,65,0.00,,,0.00,WUHU21623XXSP,2013-05-24 18:41:00,
2013-05-24 13:42:00,83.8,70.8,30.20,East,90,10.0,10.0,65,0.00,,,0.00,WUHU21623XXSP,2013-05-24 18:42:00,
2013-05-24 13:45:00,83.8,70.8,30.20,East,90,7.0,11.0,65,0.00,,,0.00,WUHU21623XXSP,2013-05-24 18:45:00,
2013-05-24 13:46:00,84.0,71.0,30.20,ESE,112,6.0,11.0,65,0.00,,,0.00,WUHU21623XXSP,2013-05-24 18:46:00,
2013-05-24 13:47:00,84.0,71.0,30.20,ESE,112,6.0,11.0,65,0.00,,,0.00,WUHU21623XXSP,2013-05-24 18:47:00,
2013-05-24 13:50:00,84.0,70.5,30.19,East,90,11.0,11.0,64,0.00,,,0.00,WUHU21623XXSP,2013-05-24 18:50:00,
2013-05-24 13:51:00,84.0,70.5,30.20,East,100,7.0,11.0,64,0.00,,,0.00,WUHU21623XXSP,2013-05-24 18:51:00,
2013-05-24 13:52:00,84.0,70.5,30.20,East,90,6.0,11.0,64,0.00,,,0.00,WUHU21623XXSP,2013-05-24 18:52:00,
2013-05-24 13:55:00,84.0,70.5,30.19,East,83,3.0,11.0,64,0.00,,,0.00,WUHU21623XXSP,2013-05-24 18:55:00,
2013-05-24 13:56:00,84.0,70.5,30.19,East,83,3.0,11.0,64,0.00,,,0.00,WUHU21623XXSP,2013-05-24 18:56:00,
2013-05-24 13:57:00,84.0,70.5,30.19,ESE,112,5.0,11.0,64,0.00,,,0.00,WUHU21623XXSP,2013-05-24 18:57:00,
2013-05-24 13:58:00,84.0,70.5,30.19,ENE,67,9.0,11.0,64,0.00,,,0.00,WUHU21623XXSP,2013-05-24 18:58:00,
2013-05-24 14:00:00,84.2,70.7,30.19,ESE,112,4.0,9.0,64,0.00,,,0.00,WUHU21623XXSP,2013-05-24 19:00:00,
2013-05-24 14:01:00,84.2,70.7,30.19,East,90,5.0,9.0,64,0.00,,,0.00,WUHU21623XXSP,2013-05-24 19:01:00,
2013-05-24 14:02:00,84.0,70.5,30.19,NE,45,9.0,9.0,64,0.00,,,0.00,WUHU21623XXSP,2013-05-24 19:02:00,
2013-05-24 14:03:00,84.2,70.7,30.19,ENE,67,9.0,9.0,64,0.00,,,0.00,WUHU21623XXSP,2013-05-24 19:03:00,
2013-05-24 14:05:00,84.2,70.7,30.19,ESE,112,7.0,9.0,64,0.00,,,0.00,WUHU21623XXSP,2013-05-24 19:05:00,
2013-05-24 14:06:00,84.4,70.9,30.19,ESE,122,7.0,9.0,64,0.00,,,0.00,WUHU21623XXSP,2013-05-24 19:06:00,
2013-05-24 14:07:00,84.4,70.9,30.19,SE,135,6.0,9.0,64,0.00,,,0.00,WUHU21623XXSP,2013-05-24 19:07:00,
2013-05-24 14:08:00,84.4,70.9,30.19,ESE,112,5.0,9.0,64,0.00,,,0.00,WUHU21623XXSP,2013-05-24 19:08:00,
2013-05-24 14:11:00,84.4,70.9,30.19,East,85,6.0,9.0,64,0.00,,,0.00,WUHU21623XXSP,2013-05-24 19:11:00,
2013-05-24 14:12:00,84.4,70.9,30.19,ESE,112,9.0,9.0,64,0.00,,,0.00,WUHU21623XXSP,2013-05-24 19:12:00,
2013-05-24 14:13:00,84.4,70.9,30.19,ESE,112,7.0,9.0,64,0.00,,,0.00,WUHU21623XXSP,2013-05-24 19:13:00,
2013-05-24 14:16:00,84.4,71.3,30.19,SE,135,3.0,10.0,65,0.00,,,0.00,WUHU21623XXSP,2013-05-24 19:16:00,
2013-05-24 14:17:00,84.6,71.5,30.19,SSE,157,7.0,10.0,65,0.00,,,0.00,WUHU21623XXSP,2013-05-24 19:17:00,
2013-05-24 14:18:00,84.4,71.3,30.19,SSE,150,6.0,10.0,65,0.00,,,0.00,WUHU21623XXSP,2013-05-24 19:18:00,
2013-05-24 14:21:00,84.6,71.0,30.18,SE,135,7.0,10.0,64,0.00,,,0.00,WUHU21623XXSP,2013-05-24 19:21:00,
2013-05-24 14:22:00,84.6,71.0,30.18,SE,135,7.0,10.0,64,0.00,,,0.00,WUHU21623XXSP,2013-05-24 19:22:00,
2013-05-24 14:23:00,84.6,71.0,30.18,ESE,112,6.0,7.0,64,0.00,,,0.00,WUHU21623XXSP,2013-05-24 19:23:00,
2013-05-24 14:27:00,84.7,71.2,30.18,SSE,157,6.0,10.0,64,0.00,,,0.00,WUHU21623XXSP,2013-05-24 19:27:00,
2013-05-24 14:28:00,84.7,71.2,30.18,ESE,112,4.0,10.0,64,0.00,,,0.00,WUHU21623XXSP,2013-05-24 19:28:00,
2013-05-24 14:29:00,84.7,71.2,30.18,SSE,157,6.0,10.0,64,0.00,,,0.00,WUHU21623XXSP,2013-05-24 19:29:00,
2013-05-24 14:32:00,84.7,71.2,30.18,ESE,112,6.0,10.0,64,0.00,,,0.00,WUHU21623XXSP,2013-05-24 19:32:00,
2013-05-24 14:33:00,84.7,71.2,30.18,ESE,123,6.0,10.0,64,0.00,,,0.00,WUHU21623XXSP,2013-05-24 19:33:00,
2013-05-24 14:34:00,84.7,71.2,30.18,ESE,112,4.0,10.0,64,0.00,,,0.00,WUHU21623XXSP,2013-05-24 19:34:00,
2013-05-24 14:37:00,84.7,71.2,30.18,ESE,112,10.0,10.0,64,0.00,,,0.00,WUHU21623XXSP,2013-05-24 19:37:00,
2013-05-24 14:38:00,84.7,71.2,30.18,ESE,112,9.0,10.0,64,0.00,,,0.00,WUHU21623XXSP,2013-05-24 19:38:00,
2013-05-24 14:40:00,84.7,71.2,30.18,ESE,112,8.0,10.0,64,0.00,,,0.00,WUHU21623XXSP,2013-05-24 19:40:00,
2013-05-24 14:42:00,84.7,71.2,30.17,ESE,105,8.0,10.0,64,0.00,,,0.00,WUHU21623XXSP,2013-05-24 19:42:00,
2013-05-24 14:43:00,84.7,71.2,30.18,SE,135,5.0,10.0,64,0.00,,,0.00,WUHU21623XXSP,2013-05-24 19:43:00,
2013-05-24 14:45:00,84.9,71.6,30.17,ESE,112,7.0,10.0,64,0.00,,,0.00,WUHU21623XXSP,2013-05-24 19:45:00,
2013-05-24 14:47:00,84.9,71.4,30.17,East,98,5.0,10.0,64,0.00,,,0.00,WUHU21623XXSP,2013-05-24 19:47:00,
2013-05-24 14:48:00,84.9,70.9,30.17,ESE,112,7.0,10.0,63,0.00,,,0.00,WUHU21623XXSP,2013-05-24 19:48:00,
2013-05-24 14:51:00,85.1,71.1,30.17,SE,146,4.0,7.0,63,0.00,,,0.00,WUHU21623XXSP,2013-05-24 19:51:00,
2013-05-24 14:52:00,85.1,71.1,30.17,ENE,67,6.0,7.0,63,0.00,,,0.00,WUHU21623XXSP,2013-05-24 19:52:00,
2013-05-24 14:53:00,85.3,71.2,30.17,SE,135,9.0,9.0,63,0.00,,,0.00,WUHU21623XXSP,2013-05-24 19:53:00,
2013-05-24 14:54:00,85.3,71.2,30.17,SE,135,9.0,9.0,63,0.00,,,0.00,WUHU21623XXSP,2013-05-24 19:54:00,
2013-05-24 14:56:00,85.3,70.8,30.17,ESE,112,9.0,9.0,62,0.00,,,0.00,WUHU21623XXSP,2013-05-24 19:56:00,
2013-05-24 14:57:00,85.3,70.8,30.17,ESE,112,9.0,9.0,62,0.00,,,0.00,WUHU21623XXSP,2013-05-24 19:57:00,
2013-05-24 14:58:00,85.5,71.0,30.17,ENE,72,8.0,9.0,62,0.00,,,0.00,WUHU21623XXSP,2013-05-24 19:58:00,
2013-05-24 14:59:00,85.5,71.0,30.17,ENE,72,8.0,9.0,62,0.00,,,0.00,WUHU21623XXSP,2013-05-24 19:59:00,
2013-05-24 15:01:00,85.6,71.1,30.16,ESE,112,9.0,9.0,62,0.00,,,0.00,WUHU21623XXSP,2013-05-24 20:01:00,
2013-05-24 15:02:00,85.6,71.1,30.16,ESE,112,9.0,9.0,62,0.00,,,0.00,WUHU21623XXSP,2013-05-24 20:02:00,
2013-05-24 15:03:00,85.6,71.1,30.17,ESE,112,3.0,9.0,62,0.00,,,0.00,WUHU21623XXSP,2013-05-24 20:03:00,
2013-05-24 15:04:00,85.6,71.1,30.16,ESE,112,5.0,9.0,62,0.00,,,0.00,WUHU21623XXSP,2013-05-24 20:04:00,
2013-05-24 15:07:00,85.8,71.3,30.16,ENE,67,5.0,11.0,62,0.00,,,0.00,WUHU21623XXSP,2013-05-24 20:07:00,
2013-05-24 15:08:00,85.8,71.3,30.16,East,90,6.0,11.0,62,0.00,,,0.00,WUHU21623XXSP,2013-05-24 20:08:00,
2013-05-24 15:09:00,85.8,71.3,30.16,East,90,6.0,11.0,62,0.00,,,0.00,WUHU21623XXSP,2013-05-24 20:09:00,
2013-05-24 15:10:00,85.8,71.3,30.16,SSE,157,9.0,11.0,62,0.00,,,0.00,WUHU21623XXSP,2013-05-24 20:10:00,
2013-05-24 15:12:00,85.8,70.8,30.16,ESE,112,9.0,11.0,61,0.00,,,0.00,WUHU21623XXSP,2013-05-24 20:12:00,
2013-05-24 15:13:00,85.8,70.8,30.16,SE,127,5.0,11.0,61,0.00,,,0.00,WUHU21623XXSP,2013-05-24 20:13:00,
2013-05-24 15:14:00,85.8,70.8,30.16,SE,127,5.0,11.0,61,0.00,,,0.00,WUHU21623XXSP,2013-05-24 20:14:00,
2013-05-24 15:16:00,85.8,70.8,30.16,SE,144,5.0,9.0,61,0.00,,,0.00,WUHU21623XXSP,2013-05-24 20:16:00,
2013-05-24 15:17:00,86.0,71.0,30.16,NE,45,7.0,9.0,61,0.00,,,0.00,WUHU21623XXSP,2013-05-24 20:17:00,
2013-05-24 15:19:00,85.8,70.8,30.16,ESE,112,9.0,9.0,61,0.00,,,0.00,WUHU21623XXSP,2013-05-24 20:19:00,
2013-05-24 15:21:00,85.8,70.4,30.16,ESE,102,8.0,9.0,60,0.00,,,0.00,WUHU21623XXSP,2013-05-24 20:21:00,
2013-05-24 15:22:00,86.2,70.7,30.16,ESE,102,5.0,9.0,60,0.00,,,0.00,WUHU21623XXSP,2013-05-24 20:22:00,
2013-05-24 15:23:00,86.2,70.7,30.16,ESE,102,5.0,9.0,60,0.00,,,0.00,WUHU21623XXSP,2013-05-24 20:23:00,
2013-05-24 15:24:00,86.0,70.5,30.16,SE,135,3.0,9.0,60,0.00,,,0.00,WUHU21623XXSP,2013-05-24 20:24:00,
2013-05-24 15:25:00,86.2,70.7,30.16,SE,135,5.0,9.0,60,0.00,,,0.00,WUHU21623XXSP,2013-05-24 20:25:00,
2013-05-24 15:26:00,86.2,70.7,30.16,SSE,157,9.0,9.0,60,0.00,,,0.00,WUHU21623XXSP,2013-05-24 20:26:00,
2013-05-24 15:28:00,86.2,70.7,30.16,ESE,112,10.0,10.0,60,0.00,,,0.00,WUHU21623XXSP,2013-05-24 20:28:00,
2013-05-24 15:30:00,86.0,70.0,30.15,ESE,112,2.0,10.0,59,0.00,,,0.00,WUHU21623XXSP,2013-05-24 20:30:00,
2013-05-24 15:32:00,86.2,70.7,30.15,SSE,157,4.0,10.0,60,0.00,,,0.00,WUHU21623XXSP,2013-05-24 20:32:00,
2013-05-24 15:33:00,86.2,70.7,30.15,SSE,157,4.0,10.0,60,0.00,,,0.00,WUHU21623XXSP,2013-05-24 20:33:00,
2013-05-24 15:35:00,86.2,70.7,30.15,South,180,5.0,10.0,60,0.00,,,0.00,WUHU21623XXSP,2013-05-24 20:35:00,
2013-05-24 15:37:00,86.2,70.7,30.15,South,180,7.0,10.0,60,0.00,,,0.00,WUHU21623XXSP,2013-05-24 20:37:00,
2013-05-24 15:38:00,86.2,70.7,30.15,South,180,7.0,7.0,60,0.00,,,0.00,WUHU21623XXSP,2013-05-24 20:38:00,
2013-05-24 15:40:00,86.2,70.7,30.15,SE,130,5.0,8.0,60,0.00,,,0.00,WUHU21623XXSP,2013-05-24 20:40:00,
2013-05-24 15:41:00,86.2,70.7,30.15,SE,130,5.0,8.0,60,0.00,,,0.00,WUHU21623XXSP,2013-05-24 20:41:00,
2013-05-24 15:42:00,86.0,70.5,30.15,East,90,5.0,8.0,60,0.00,,,0.00,WUHU21623XXSP,2013-05-24 20:42:00,
2013-05-24 15:43:00,86.0,70.5,30.15,East,90,5.0,8.0,60,0.00,,,0.00,WUHU21623XXSP,2013-05-24 20:43:00,
2013-05-24 15:44:00,86.0,70.5,30.15,ESE,103,4.0,8.0,60,0.00,,,0.00,WUHU21623XXSP,2013-05-24 20:44:00,
2013-05-24 15:45:00,86.0,70.5,30.15,East,90,5.0,8.0,60,0.00,,,0.00,WUHU21623XXSP,2013-05-24 20:45:00,
2013-05-24 15:46:00,86.0,70.5,30.15,East,97,4.0,8.0,60,0.00,,,0.00,WUHU21623XXSP,2013-05-24 20:46:00,
2013-05-24 15:48:00,86.0,70.5,30.15,ESE,112,6.0,8.0,60,0.00,,,0.00,WUHU21623XXSP,2013-05-24 20:48:00,
2013-05-24 15:49:00,86.0,70.5,30.15,SE,135,7.0,8.0,60,0.00,,,0.00,WUHU21623XXSP,2013-05-24 20:49:00,
2013-05-24 15:50:00,85.8,70.4,30.15,ESE,117,6.0,7.0,60,0.00,,,0.00,WUHU21623XXSP,2013-05-24 20:50:00,
2013-05-24 15:51:00,85.8,70.4,30.15,East,90,9.0,9.0,60,0.00,,,0.00,WUHU21623XXSP,2013-05-24 20:51:00,
2013-05-24 15:53:00,85.8,70.4,30.14,SSE,157,8.0,9.0,60,0.00,,,0.00,WUHU21623XXSP,2013-05-24 20:53:00,
2013-05-24 15:54:00,85.8,70.4,30.14,SE,143,6.0,9.0,60,0.00,,,0.00,WUHU21623XXSP,2013-05-24 20:54:00,
2013-05-24 15:56:00,85.8,70.4,30.14,ESE,112,6.0,9.0,60,0.00,,,0.00,WUHU21623XXSP,2013-05-24 20:56:00,
2013-05-24 15:58:00,85.8,70.8,30.14,ENE,67,6.0,9.0,61,0.00,,,0.00,WUHU21623XXSP,2013-05-24 20:58:00,
2013-05-24 15:59:00,85.8,70.8,30.14,ENE,57,4.0,9.0,61,0.00,,,0.00,WUHU21623XXSP,2013-05-24 20:59:00,
2013-05-24 16:01:00,85.8,70.8,30.14,ESE,112,5.0,8.0,61,0.00,,,0.00,WUHU21623XXSP,2013-05-24 21:01:00,
2013-05-24 16:03:00,85.8,70.8,30.13,East,91,9.0,10.0,61,0.00,,,0.00,WUHU21623XXSP,2013-05-24 21:03:00,
2013-05-24 16:04:00,85.8,70.8,30.13,ENE,67,9.0,10.0,61,0.00,,,0.00,WUHU21623XXSP,2013-05-24 21:04:00,
2013-05-24 16:06:00,85.6,70.6,30.13,East,90,6.0,10.0,61,0.00,,,0.00,WUHU21623XXSP,2013-05-24 21:06:00,
2013-05-24 16:07:00,85.6,70.6,30.13,East,90,6.0,10.0,61,0.00,,,0.00,WUHU21623XXSP,2013-05-24 21:07:00,
2013-05-24 16:08:00,85.6,70.6,30.13,East,90,4.0,10.0,61,0.00,,,0.00,WUHU21623XXSP,2013-05-24 21:08:00,
2013-05-24 16:09:00,85.6,70.6,30.13,ENE,67,7.0,10.0,61,0.00,,,0.00,WUHU21623XXSP,2013-05-24 21:09:00,
2013-05-24 16:11:00,85.6,70.6,30.13,East,90,9.0,10.0,61,0.00,,,0.00,WUHU21623XXSP,2013-05-24 21:11:00,
2013-05-24 16:12:00,85.6,71.1,30.14,East,82,7.0,9.0,62,0.00,,,0.00,WUHU21623XXSP,2013-05-24 21:12:00,
2013-05-24 16:13:00,85.5,71.0,30.14,ENE,67,10.0,10.0,62,0.00,,,0.00,WUHU21623XXSP,2013-05-24 21:13:00,
2013-05-24 16:14:00,85.5,71.0,30.14,ENE,67,9.0,10.0,62,0.00,,,0.00,WUHU21623XXSP,2013-05-24 21:14:00,
2013-05-24 16:15:00,85.3,70.8,30.14,ESE,112,10.0,10.0,62,0.00,,,0.00,WUHU21623XXSP,2013-05-24 21:15:00,
2013-05-24 16:16:00,85.3,70.8,30.14,East,90,9.0,10.0,62,0.00,,,0.00,WUHU21623XXSP,2013-05-24 21:16:00,
2013-05-24 16:17:00,85.3,70.8,30.14,East,90,7.0,10.0,62,0.00,,,0.00,WUHU21623XXSP,2013-05-24 21:17:00,
2013-05-24 16:19:00,85.3,70.8,30.14,East,80,4.0,10.0,62,0.00,,,0.00,WUHU21623XXSP,2013-05-24 21:19:00,
2013-05-24 16:20:00,85.3,70.8,30.14,ENE,70,8.0,10.0,62,0.00,,,0.00,WUHU21623XXSP,2013-05-24 21:20:00,
2013-05-24 16:21:00,85.3,70.3,30.14,NE,45,9.0,10.0,61,0.00,,,0.00,WUHU21623XXSP,2013-05-24 21:21:00,
2013-05-24 16:22:00,85.3,70.3,30.14,East,87,8.0,10.0,61,0.00,,,0.00,WUHU21623XXSP,2013-05-24 21:22:00,
2013-05-24 16:24:00,85.3,70.3,30.14,ESE,112,10.0,10.0,61,0.00,,,0.00,WUHU21623XXSP,2013-05-24 21:24:00,
2013-05-24 16:25:00,85.3,70.3,30.14,SSE,157,5.0,10.0,61,0.00,,,0.00,WUHU21623XXSP,2013-05-24 21:25:00,
2013-05-24 16:26:00,85.1,70.2,30.14,East,90,5.0,10.0,61,0.00,,,0.00,WUHU21623XXSP,2013-05-24 21:26:00,
2013-05-24 16:28:00,85.1,70.2,30.14,SE,135,5.0,10.0,61,0.00,,,0.00,WUHU21623XXSP,2013-05-24 21:28:00,
2013-05-24 16:29:00,85.3,70.8,30.14,ENE,67,6.0,10.0,62,0.00,,,0.00,WUHU21623XXSP,2013-05-24 21:29:00,
2013-05-24 16:31:00,85.1,70.6,30.14,ESE,112,7.0,10.0,62,0.00,,,0.00,WUHU21623XXSP,2013-05-24 21:31:00,
2013-05-24 16:32:00,85.1,70.6,30.14,ESE,104,5.0,10.0,62,0.00,,,0.00,WUHU21623XXSP,2013-05-24 21:32:00,
2013-05-24 16:33:00,85.1,70.6,30.14,NE,45,6.0,10.0,62,0.00,,,0.00,WUHU21623XXSP,2013-05-24 21:33:00,
2013-05-24 16:34:00,85.1,70.6,30.14,East,90,9.0,9.0,62,0.00,,,0.00,WUHU21623XXSP,2013-05-24 21:34:00,
2013-05-24 16:36:00,85.1,70.6,30.14,ESE,112,5.0,9.0,62,0.00,,,0.00,WUHU21623XXSP,2013-05-24 21:36:00,
2013-05-24 16:38:00,85.1,70.6,30.14,ENE,67,7.0,9.0,62,0.00,,,0.00,WUHU21623XXSP,2013-05-24 21:38:00,
2013-05-24 16:39:00,85.1,70.6,30.14,East,87,5.0,9.0,62,0.00,,,0.00,WUHU21623XXSP,2013-05-24 21:39:00,
2013-05-24 16:40:00,85.1,70.6,30.14,East,87,5.0,9.0,62,0.00,,,0.00,WUHU21623XXSP,2013-05-24 21:40:00,
2013-05-24 16:42:00,85.1,70.6,30.14,East,80,6.0,9.0,62,0.00,,,0.00,WUHU21623XXSP,2013-05-24 21:42:00,
2013-05-24 16:43:00,85.1,70.6,30.14,ESE,112,9.0,9.0,62,0.00,,,0.00,WUHU21623XXSP,2013-05-24 21:43:00,
2013-05-24 16:44:00,84.9,70.4,30.14,ESE,112,6.0,9.0,62,0.00,,,0.00,WUHU21623XXSP,2013-05-24 21:44:00,
2013-05-24 16:45:00,84.9,70.4,30.14,ESE,112,6.0,9.0,62,0.00,,,0.00,WUHU21623XXSP,2013-05-24 21:45:00,
2013-05-24 16:47:00,84.9,70.4,30.14,ENE,67,9.0,9.0,62,0.00,,,0.00,WUHU21623XXSP,2013-05-24 21:47:00,
2013-05-24 16:48:00,84.9,70.4,30.14,East,84,8.0,9.0,62,0.00,,,0.00,WUHU21623XXSP,2013-05-24 21:48:00,
2013-05-24 16:50:00,84.9,70.4,30.14,East,90,6.0,9.0,62,0.00,,,0.00,WUHU21623XXSP,2013-05-24 21:50:00,
2013-05-24 16:52:00,84.9,70.4,30.14,East,90,9.0,9.0,62,0.00,,,0.00,WUHU21623XXSP,2013-05-24 21:52:00,
2013-05-24 16:53:00,84.9,70.4,30.14,ESE,112,9.0,9.0,62,0.00,,,0.00,WUHU21623XXSP,2013-05-24 21:53:00,
2013-05-24 16:54:00,84.9,70.4,30.14,ESE,112,9.0,9.0,62,0.00,,,0.00,WUHU21623XXSP,2013-05-24 21:54:00,
2013-05-24 16:55:00,84.9,70.9,30.14,ESE,112,11.0,11.0,63,0.00,,,0.00,WUHU21623XXSP,2013-05-24 21:55:00,
2013-05-24 16:57:00,84.9,70.9,30.14,ENE,78,6.0,11.0,63,0.00,,,0.00,WUHU21623XXSP,2013-05-24 21:57:00,
2013-05-24 16:58:00,84.9,70.9,30.14,ESE,112,7.0,11.0,63,0.00,,,0.00,WUHU21623XXSP,2013-05-24 21:58:00,
2013-05-24 16:59:00,84.9,70.9,30.14,ENE,67,7.0,11.0,63,0.00,,,0.00,WUHU21623XXSP,2013-05-24 21:59:00,
2013-05-24 17:00:00,84.9,70.9,30.14,NE,45,10.0,11.0,63,0.00,,,0.00,WUHU21623XXSP,2013-05-24 22:00:00,
2013-05-24 17:02:00,84.7,70.7,30.14,SE,135,6.0,11.0,63,0.00,,,0.00,WUHU21623XXSP,2013-05-24 22:02:00,
2013-05-24 17:03:00,84.7,70.7,30.14,ESE,112,9.0,11.0,63,0.00,,,0.00,WUHU21623XXSP,2013-05-24 22:03:00,
2013-05-24 17:04:00,84.7,70.7,30.14,East,90,9.0,10.0,63,0.00,,,0.00,WUHU21623XXSP,2013-05-24 22:04:00,
2013-05-24 17:05:00,84.7,71.2,30.14,East,81,8.0,10.0,64,0.00,,,0.00,WUHU21623XXSP,2013-05-24 22:05:00,
2013-05-24 17:06:00,84.7,71.2,30.14,ENE,67,7.0,10.0,64,0.00,,,0.00,WUHU21623XXSP,2013-05-24 22:06:00,
2013-05-24 17:07:00,84.7,71.2,30.14,East,86,6.0,10.0,64,0.00,,,0.00,WUHU21623XXSP,2013-05-24 22:07:00,
2013-05-24 17:09:00,84.7,71.2,30.14,SE,135,7.0,10.0,64,0.00,,,0.00,WUHU21623XXSP,2013-05-24 22:09:00,
2013-05-24 17:10:00,84.7,71.2,30.14,SE,126,6.0,9.0,64,0.00,,,0.00,WUHU21623XXSP,2013-05-24 22:10:00,
2013-05-24 17:11:00,84.7,71.2,30.14,ESE,112,4.0,9.0,64,0.00,,,0.00,WUHU21623XXSP,2013-05-24 22:11:00,
2013-05-24 17:12:00,84.7,71.2,30.14,SE,135,5.0,9.0,64,0.00,,,0.00,WUHU21623XXSP,2013-05-24 22:12:00,
2013-05-24 17:14:00,84.7,71.2,30.13,ESE,112,5.0,9.0,64,0.00,,,0.00,WUHU21623XXSP,2013-05-24 22:14:00,
2013-05-24 17:15:00,84.7,71.2,30.13,East,90,11.0,11.0,64,0.00,,,0.00,WUHU21623XXSP,2013-05-24 22:15:00,
2013-05-24 17:16:00,84.6,71.0,30.13,East,90,9.0,11.0,64,0.00,,,0.00,WUHU21623XXSP,2013-05-24 22:16:00,
2013-05-24 17:17:00,84.6,71.0,30.13,East,99,5.0,11.0,64,0.00,,,0.00,WUHU21623XXSP,2013-05-24 22:17:00,
2013-05-24 17:19:00,84.6,71.0,30.13,ENE,67,10.0,11.0,64,0.00,,,0.00,WUHU21623XXSP,2013-05-24 22:19:00,
2013-05-24 17:20:00,84.6,71.0,30.13,East,90,7.0,11.0,64,0.00,,,0.00,WUHU21623XXSP,2013-05-24 22:20:00,
2013-05-24 17:21:00,84.6,71.0,30.13,East,90,7.0,11.0,64,0.00,,,0.00,WUHU21623XXSP,2013-05-24 22:21:00,
2013-05-24 17:22:00,84.4,71.3,30.13,SE,126,3.0,11.0,65,0.00,,,0.00,WUHU21623XXSP,2013-05-24 22:22:00,
2013-05-24 17:24:00,84.6,71.5,30.13,East,90,4.0,11.0,65,0.00,,,0.00,WUHU21623XXSP,2013-05-24 22:24:00,
2013-05-24 17:25:00,84.4,71.3,30.13,ESE,112,5.0,10.0,65,0.00,,,0.00,WUHU21623XXSP,2013-05-24 22:25:00,
2013-05-24 17:26:00,84.4,71.3,30.13,ESE,112,7.0,10.0,65,0.00,,,0.00,WUHU21623XXSP,2013-05-24 22:26:00,
2013-05-24 17:27:00,84.4,71.3,30.13,ESE,112,6.0,10.0,65,0.00,,,0.00,WUHU21623XXSP,2013-05-24 22:27:00,
2013-05-24 17:29:00,84.4,71.3,30.13,East,101,6.0,7.0,65,0.00,,,0.00,WUHU21623XXSP,2013-05-24 22:29:00,
2013-05-24 17:30:00,84.4,71.3,30.14,East,80,5.0,7.0,65,0.00,,,0.00,WUHU21623XXSP,2013-05-24 22:30:00,
2013-05-24 17:31:00,84.4,71.3,30.14,East,80,5.0,7.0,65,0.00,,,0.00,WUHU21623XXSP,2013-05-24 22:31:00,
2013-05-24 17:32:00,84.4,71.3,30.14,ESE,112,4.0,7.0,65,0.00,,,0.00,WUHU21623XXSP,2013-05-24 22:32:00,
2013-05-24 17:34:00,84.4,71.3,30.14,ESE,112,5.0,7.0,65,0.00,,,0.00,WUHU21623XXSP,2013-05-24 22:34:00,
2013-05-24 17:35:00,84.4,71.3,30.14,ESE,112,5.0,7.0,65,0.00,,,0.00,WUHU21623XXSP,2013-05-24 22:35:00,
2013-05-24 17:36:00,84.4,71.3,30.14,ESE,112,5.0,6.0,65,0.00,,,0.00,WUHU21623XXSP,2013-05-24 22:36:00,
2013-05-24 17:37:00,84.4,71.3,30.14,ESE,102,5.0,6.0,65,0.00,,,0.00,WUHU21623XXSP,2013-05-24 22:37:00,
2013-05-24 17:38:00,84.4,71.3,30.13,ESE,112,8.0,8.0,65,0.00,,,0.00,WUHU21623XXSP,2013-05-24 22:38:00,
2013-05-24 17:40:00,84.2,71.2,30.13,ESE,112,9.0,9.0,65,0.00,,,0.00,WUHU21623XXSP,2013-05-24 22:40:00,
2013-05-24 17:41:00,84.0,71.0,30.13,ESE,102,8.0,9.0,65,0.00,,,0.00,WUHU21623XXSP,2013-05-24 22:41:00,
2013-05-24 17:42:00,84.2,71.2,30.13,East,97,6.0,9.0,65,0.00,,,0.00,WUHU21623XXSP,2013-05-24 22:42:00,
2013-05-24 17:43:00,84.2,71.2,30.13,ENE,67,4.0,9.0,65,0.00,,,0.00,WUHU21623XXSP,2013-05-24 22:43:00,
2013-05-24 17:45:00,84.0,71.0,30.13,SE,135,6.0,9.0,65,0.00,,,0.00,WUHU21623XXSP,2013-05-24 22:45:00,
2013-05-24 17:46:00,84.0,71.0,30.13,SE,135,6.0,9.0,65,0.00,,,0.00,WUHU21623XXSP,2013-05-24 22:46:00,
2013-05-24 17:47:00,84.0,71.0,30.13,East,90,5.0,9.0,65,0.00,,,0.00,WUHU21623XXSP,2013-05-24 22:47:00,
2013-05-24 17:48:00,84.0,71.0,30.13,East,90,8.0,11.0,65,0.00,,,0.00,WUHU21623XXSP,2013-05-24 22:48:00,
2013-05-24 17:50:00,84.0,71.0,30.13,East,90,10.0,11.0,65,0.00,,,0.00,WUHU21623XXSP,2013-05-24 22:50:00,
2013-05-24 17:51:00,84.0,71.0,30.13,ESE,118,9.0,11.0,65,0.00,,,0.00,WUHU21623XXSP,2013-05-24 22:51:00,
2013-05-24 17:52:00,84.0,71.0,30.13,South,176,7.0,11.0,65,0.00,,,0.00,WUHU21623XXSP,2013-05-24 22:52:00,
2013-05-24 17:54:00,84.0,71.0,30.13,SSE,157,6.0,11.0,65,0.00,,,0.00,WUHU21623XXSP,2013-05-24 22:54:00,
2013-05-24 17:55:00,84.0,71.4,30.13,East,90,11.0,11.0,66,0.00,,,0.00,WUHU21623XXSP,2013-05-24 22:55:00,
2013-05-24 17:56:00,84.0,71.4,30.13,East,90,9.0,11.0,66,0.00,,,0.00,WUHU21623XXSP,2013-05-24 22:56:00,
2013-05-24 17:57:00,84.0,71.4,30.13,ESE,112,9.0,11.0,66,0.00,,,0.00,WUHU21623XXSP,2013-05-24 22:57:00,
2013-05-24 17:59:00,84.0,71.4,30.13,ESE,112,2.0,11.0,66,0.00,,,0.00,WUHU21623XXSP,2013-05-24 22:59:00,
2013-05-24 18:01:00,83.8,71.2,30.14,SE,135,5.0,11.0,66,0.00,,,0.00,WUHU21623XXSP,2013-05-24 23:01:00,
2013-05-24 18:02:00,83.8,71.2,30.13,ESE,121,4.0,11.0,66,0.00,,,0.00,WUHU21623XXSP,2013-05-24 23:02:00,
2013-05-24 18:04:00,83.8,71.7,30.14,ESE,112,10.0,11.0,67,0.00,,,0.00,WUHU21623XXSP,2013-05-24 23:04:00,
2013-05-24 18:06:00,83.8,71.7,30.13,ESE,105,5.0,10.0,67,0.00,,,0.00,WUHU21623XXSP,2013-05-24 23:06:00,
2013-05-24 18:07:00,83.7,71.5,30.13,ESE,112,6.0,10.0,67,0.00,,,0.00,WUHU21623XXSP,2013-05-24 23:07:00,
2013-05-24 18:09:00,83.5,71.8,30.14,ESE,112,4.0,10.0,68,0.00,,,0.00,WUHU21623XXSP,2013-05-24 23:09:00,
2013-05-24 18:11:00,83.5,71.8,30.14,ESE,105,4.0,10.0,68,0.00,,,0.00,WUHU21623XXSP,2013-05-24 23:11:00,
2013-05-24 18:12:00,83.5,71.8,30.14,East,90,3.0,10.0,68,0.00,,,0.00,WUHU21623XXSP,2013-05-24 23:12:00,
2013-05-24 18:13:00,83.5,71.8,30.14,East,90,3.0,10.0,68,0.00,,,0.00,WUHU21623XXSP,2013-05-24 23:13:00,
2013-05-24 18:14:00,83.5,71.8,30.14,SSE,157,2.0,6.0,68,0.00,,,0.00,WUHU21623XXSP,2013-05-24 23:14:00,
2013-05-24 18:17:00,83.3,71.6,30.14,ESE,112,5.0,6.0,68,0.00,,,0.00,WUHU21623XXSP,2013-05-24 23:17:00,
2013-05-24 18:18:00,83.1,71.4,30.14,ESE,112,5.0,6.0,68,0.00,,,0.00,WUHU21623XXSP,2013-05-24 23:18:00,
2013-05-24 18:21:00,83.1,71.4,30.14,ESE,112,3.0,7.0,68,0.00,,,0.00,WUHU21623XXSP,2013-05-24 23:21:00,
2013-05-24 18:22:00,83.1,71.4,30.14,ESE,112,5.0,7.0,68,0.00,,,0.00,WUHU21623XXSP,2013-05-24 23:22:00,
2013-05-24 18:23:00,83.1,71.4,30.14,SE,133,5.0,7.0,68,0.00,,,0.00,WUHU21623XXSP,2013-05-24 23:23:00,
2013-05-24 18:26:00,83.1,71.4,30.14,ESE,112,3.0,7.0,68,0.00,,,0.00,WUHU21623XXSP,2013-05-24 23:26:00,
2013-05-24 18:27:00,82.9,71.2,30.14,SE,135,4.0,7.0,68,0.00,,,0.00,WUHU21623XXSP,2013-05-24 23:27:00,
2013-05-24 18:28:00,82.9,71.2,30.14,South,180,5.0,7.0,68,0.00,,,0.00,WUHU21623XXSP,2013-05-24 23:28:00,
2013-05-24 18:31:00,82.9,71.2,30.14,East,90,7.0,7.0,68,0.00,,,0.00,WUHU21623XXSP,2013-05-24 23:31:00,
2013-05-24 18:32:00,82.9,71.2,30.14,East,98,5.0,7.0,68,0.00,,,0.00,WUHU21623XXSP,2013-05-24 23:32:00,
2013-05-24 18:33:00,82.9,71.2,30.14,ESE,112,4.0,7.0,68,0.00,,,0.00,WUHU21623XXSP,2013-05-24 23:33:00,
2013-05-24 18:34:00,82.9,71.2,30.14,SE,135,5.0,7.0,68,0.00,,,0.00,WUHU21623XXSP,2013-05-24 23:34:00,
2013-05-24 18:37:00,82.9,71.2,30.14,SE,135,9.0,9.0,68,0.00,,,0.00,WUHU21623XXSP,2013-05-24 23:37:00,
2013-05-24 18:38:00,82.9,71.2,30.15,SE,135,6.0,9.0,68,0.00,,,0.00,WUHU21623XXSP,2013-05-24 23:38:00,
2013-05-24 18:39:00,82.9,71.2,30.15,East,101,3.0,9.0,68,0.00,,,0.00,WUHU21623XXSP,2013-05-24 23:39:00,
2013-05-24 18:42:00,82.8,71.1,30.14,ESE,103,4.0,9.0,68,0.00,,,0.00,WUHU21623XXSP,2013-05-24 23:42:00,
2013-05-24 18:43:00,82.8,71.1,30.14,ESE,103,4.0,9.0,68,0.00,,,0.00,WUHU21623XXSP,2013-05-24 23:43:00,
2013-05-24 18:44:00,82.8,71.1,30.14,SSE,157,5.0,9.0,68,0.00,,,0.00,WUHU21623XXSP,2013-05-24 23:44:00,
2013-05-24 18:47:00,82.8,71.1,30.14,ESE,112,7.0,7.0,68,0.00,,,0.00,WUHU21623XXSP,2013-05-24 23:47:00,
2013-05-24 18:48:00,82.8,71.1,30.14,ESE,112,6.0,7.0,68,0.00,,,0.00,WUHU21623XXSP,2013-05-24 23:48:00,
2013-05-24 18:49:00,82.8,71.1,30.14,ESE,112,5.0,7.0,68,0.00,,,0.00,WUHU21623XXSP,2013-05-24 23:49:00,
2013-05-24 18:52:00,82.6,70.9,30.14,ESE,112,5.0,7.0,68,0.00,,,0.00,WUHU21623XXSP,2013-05-24 23:52:00,
2013-05-24 18:53:00,82.6,70.9,30.14,ESE,112,5.0,7.0,68,0.00,,,0.00,WUHU21623XXSP,2013-05-24 23:53:00,
2013-05-24 18:54:00,82.6,70.9,30.15,ESE,120,4.0,7.0,68,0.00,,,0.00,WUHU21623XXSP,2013-05-24 23:54:00,
2013-05-24 18:57:00,82.6,70.9,30.15,ESE,112,6.0,6.0,68,0.00,,,0.00,WUHU21623XXSP,2013-05-24 23:57:00,
2013-05-24 18:58:00,82.6,70.9,30.15,ESE,112,6.0,6.0,68,0.00,,,0.00,WUHU21623XXSP,2013-05-24 23:58:00,
2013-05-24 18:59:00,82.6,70.9,30.15,ESE,112,4.0,6.0,68,0.00,,,0.00,WUHU21623XXSP,2013-05-24 23:59:00,
2013-05-24 19:03:00,82.6,70.9,30.15,ESE,112,5.0,6.0,68,0.00,,,0.00,WUHU21623XXSP,2013-05-25 00:03:00,
2013-05-24 19:04:00,82.6,70.9,30.15,ESE,112,4.0,6.0,68,0.00,,,0.00,WUHU21623XXSP,2013-05-25 00:04:00,
2013-05-24 19:08:00,82.6,70.9,30.15,ESE,112,5.0,6.0,68,0.00,,,0.00,WUHU21623XXSP,2013-05-25 00:08:00,
2013-05-24 19:09:00,82.6,70.9,30.15,ESE,112,5.0,6.0,68,0.00,,,0.00,WUHU21623XXSP,2013-05-25 00:09:00,
2013-05-24 19:10:00,82.6,70.9,30.15,ESE,112,5.0,6.0,68,0.00,,,0.00,WUHU21623XXSP,2013-05-25 00:10:00,
2013-05-24 19:13:00,82.2,70.5,30.15,ESE,112,5.0,6.0,68,0.00,,,0.00,WUHU21623XXSP,2013-05-25 00:13:00,
2013-05-24 19:14:00,82.2,71.0,30.15,ESE,106,4.0,6.0,69,0.00,,,0.00,WUHU21623XXSP,2013-05-25 00:14:00,
2013-05-24 19:15:00,82.2,71.0,30.15,ESE,112,4.0,6.0,69,0.00,,,0.00,WUHU21623XXSP,2013-05-25 00:15:00,
2013-05-24 19:18:00,82.2,71.0,30.15,ESE,112,2.0,6.0,69,0.00,,,0.00,WUHU21623XXSP,2013-05-25 00:18:00,
2013-05-24 19:19:00,82.2,71.0,30.15,SSE,157,0.0,6.0,69,0.00,,,0.00,WUHU21623XXSP,2013-05-25 00:19:00,
2013-05-24 19:20:00,82.2,71.0,30.15,SSE,157,0.0,6.0,69,0.00,,,0.00,WUHU21623XXSP,2013-05-25 00:20:00,
2013-05-24 19:23:00,82.2,71.0,30.16,ENE,78,3.0,4.0,69,0.00,,,0.00,WUHU21623XXSP,2013-05-25 00:23:00,
2013-05-24 19:24:00,82.2,71.0,30.16,ENE,67,3.0,4.0,69,0.00,,,0.00,WUHU21623XXSP,2013-05-25 00:24:00,
2013-05-24 19:25:00,82.2,71.0,30.16,East,90,4.0,4.0,69,0.00,,,0.00,WUHU21623XXSP,2013-05-25 00:25:00,
2013-05-24 19:28:00,82.2,71.0,30.16,SE,135,2.0,6.0,69,0.00,,,0.00,WUHU21623XXSP,2013-05-25 00:28:00,
2013-05-24 19:29:00,82.2,71.0,30.16,SE,135,2.0,6.0,69,0.00,,,0.00,WUHU21623XXSP,2013-05-25 00:29:00,
2013-05-24 19:30:00,82.2,71.0,30.16,ESE,112,3.0,6.0,69,0.00,,,0.00,WUHU21623XXSP,2013-05-25 00:30:00,
2013-05-24 19:33:00,82.2,71.0,30.16,SE,135,7.0,7.0,69,0.00,,,0.00,WUHU21623XXSP,2013-05-25 00:33:00,
2013-05-24 19:34:00,82.2,71.0,30.16,SE,135,6.0,7.0,69,0.00,,,0.00,WUHU21623XXSP,2013-05-25 00:34:00,
2013-05-24 19:35:00,82.2,71.0,30.16,SE,125,4.0,7.0,69,0.00,,,0.00,WUHU21623XXSP,2013-05-25 00:35:00,
2013-05-24 19:39:00,82.0,70.8,30.16,SE,135,3.0,7.0,69,0.00,,,0.00,WUHU21623XXSP,2013-05-25 00:39:00,
2013-05-24 19:40:00,82.0,70.8,30.16,SE,135,3.0,7.0,69,0.00,,,0.00,WUHU21623XXSP,2013-05-25 00:40:00,
2013-05-24 19:41:00,82.0,70.8,30.16,East,90,9.0,9.0,69,0.00,,,0.00,WUHU21623XXSP,2013-05-25 00:41:00,
2013-05-24 19:44:00,82.0,70.8,30.15,SE,135,4.0,9.0,69,0.00,,,0.00,WUHU21623XXSP,2013-05-25 00:44:00,
2013-05-24 19:45:00,82.0,70.8,30.15,ESE,112,5.0,9.0,69,0.00,,,0.00,WUHU21623XXSP,2013-05-25 00:45:00,
2013-05-24 19:46:00,82.0,70.8,30.15,ESE,112,4.0,9.0,69,0.00,,,0.00,WUHU21623XXSP,2013-05-25 00:46:00,
2013-05-24 19:49:00,82.0,70.8,30.15,ESE,112,4.0,9.0,69,0.00,,,0.00,WUHU21623XXSP,2013-05-25 00:49:00,
2013-05-24 19:50:00,82.0,70.8,30.16,ENE,67,2.0,7.0,69,0.00,,,0.00,WUHU21623XXSP,2013-05-25 00:50:00,
2013-05-24 19:51:00,82.0,70.8,30.15,ESE,112,3.0,7.0,69,0.00,,,0.00,WUHU21623XXSP,2013-05-25 00:51:00,
2013-05-24 19:54:00,82.0,70.8,30.15,SE,134,3.0,5.0,69,0.00,,,0.00,WUHU21623XXSP,2013-05-25 00:54:00,
2013-05-24 19:55:00,82.0,70.8,30.15,SSE,168,3.0,4.0,69,0.00,,,0.00,WUHU21623XXSP,2013-05-25 00:55:00,
2013-05-24 19:56:00,82.0,70.8,30.15,South,180,3.0,4.0,69,0.00,,,0.00,WUHU21623XXSP,2013-05-25 00:56:00,
2013-05-24 19:59:00,81.9,70.7,30.15,East,90,7.0,7.0,69,0.00,,,0.00,WUHU21623XXSP,2013-05-25 00:59:00,
2013-05-24 20:00:00,81.9,70.7,30.15,SE,135,3.0,7.0,69,0.00,,,0.00,WUHU21623XXSP,2013-05-25 01:00:00,
2013-05-24 20:01:00,81.9,70.7,30.15,SE,135,3.0,7.0,69,0.00,,,0.00,WUHU21623XXSP,2013-05-25 01:01:00,
2013-05-24 20:04:00,81.7,70.5,30.15,ESE,112,3.0,7.0,69,0.00,,,0.00,WUHU21623XXSP,2013-05-25 01:04:00,
2013-05-24 20:06:00,81.7,70.5,30.15,ESE,112,2.0,7.0,69,0.00,,,0.00,WUHU21623XXSP,2013-05-25 01:06:00,
2013-05-24 20:10:00,81.9,70.7,30.15,East,90,4.0,5.0,69,0.00,,,0.00,WUHU21623XXSP,2013-05-25 01:10:00,
2013-05-24 20:11:00,81.7,70.5,30.15,ESE,112,4.0,5.0,69,0.00,,,0.00,WUHU21623XXSP,2013-05-25 01:11:00,
2013-05-24 20:15:00,81.7,70.5,30.15,ESE,112,4.0,5.0,69,0.00,,,0.00,WUHU21623XXSP,2013-05-25 01:15:00,
2013-05-24 20:16:00,81.7,70.5,30.15,ESE,112,4.0,5.0,69,0.00,,,0.00,WUHU21623XXSP,2013-05-25 01:16:00,
2013-05-24 20:20:00,81.7,70.5,30.15,East,90,4.0,4.0,69,0.00,,,0.00,WUHU21623XXSP,2013-05-25 01:20:00,
2013-05-24 20:21:00,81.7,70.5,30.15,East,90,4.0,4.0,69,0.00,,,0.00,WUHU21623XXSP,2013-05-25 01:21:00,
2013-05-24 20:22:00,81.7,70.5,30.15,East,90,4.0,4.0,69,0.00,,,0.00,WUHU21623XXSP,2013-05-25 01:22:00,
2013-05-24 20:26:00,81.7,70.5,30.15,ESE,112,2.0,4.0,69,0.00,,,0.00,WUHU21623XXSP,2013-05-25 01:26:00,
2013-05-24 20:27:00,81.7,70.5,30.15,ESE,112,2.0,4.0,69,0.00,,,0.00,WUHU21623XXSP,2013-05-25 01:27:00,
2013-05-24 20:31:00,81.7,70.5,30.15,ESE,112,4.0,5.0,69,0.00,,,0.00,WUHU21623XXSP,2013-05-25 01:31:00,
2013-05-24 20:32:00,81.7,70.5,30.15,ESE,107,3.0,5.0,69,0.00,,,0.00,WUHU21623XXSP,2013-05-25 01:32:00,
2013-05-24 20:36:00,81.7,70.5,30.16,East,86,3.0,5.0,69,0.00,,,0.00,WUHU21623XXSP,2013-05-25 01:36:00,
2013-05-24 20:37:00,81.7,70.5,30.16,SW,233,2.0,5.0,69,0.00,,,0.00,WUHU21623XXSP,2013-05-25 01:37:00,
2013-05-24 20:41:00,81.5,69.0,30.17,WSW,256,7.0,10.0,66,0.00,,,0.00,WUHU21623XXSP,2013-05-25 01:41:00,
2013-05-24 20:42:00,81.5,69.0,30.17,WSW,256,7.0,10.0,66,0.00,,,0.00,WUHU21623XXSP,2013-05-25 01:42:00,
2013-05-24 20:43:00,81.3,68.4,30.17,SW,225,6.0,10.0,65,0.00,,,0.00,WUHU21623XXSP,2013-05-25 01:43:00,
2013-05-24 20:46:00,81.1,66.9,30.17,WSW,237,10.0,11.0,62,0.00,,,0.00,WUHU21623XXSP,2013-05-25 01:46:00,
2013-05-24 20:47:00,80.8,66.1,30.18,West,270,8.0,11.0,61,0.00,,,0.00,WUHU21623XXSP,2013-05-25 01:47:00,
2013-05-24 20:48:00,80.8,66.1,30.17,West,270,12.0,12.0,61,0.00,,,0.00,WUHU21623XXSP,2013-05-25 01:48:00,
2013-05-24 20:52:00,80.2,65.2,30.17,SW,225,11.0,12.0,60,0.00,,,0.00,WUHU21623XXSP,2013-05-25 01:52:00,
2013-05-24 20:53:00,80.1,65.0,30.17,SSW,202,10.0,12.0,60,0.00,,,0.00,WUHU21623XXSP,2013-05-25 01:53:00,
2013-05-24 20:57:00,79.3,64.8,30.17,West,259,8.0,12.0,61,0.00,,,0.00,WUHU21623XXSP,2013-05-25 01:57:00,
2013-05-24 20:58:00,79.3,64.8,30.17,SW,225,11.0,11.0,61,0.00,,,0.00,WUHU21623XXSP,2013-05-25 01:58:00,
2013-05-24 21:02:00,78.6,64.1,30.17,NNW,337,5.0,17.0,61,0.00,,,0.00,WUHU21623XXSP,2013-05-25 02:02:00,
2013-05-24 21:03:00,78.6,64.1,30.17,West,279,5.0,17.0,61,0.00,,,0.00,WUHU21623XXSP,2013-05-25 02:03:00,
2013-05-24 21:07:00,78.1,64.0,30.17,West,260,5.0,17.0,62,0.00,,,0.00,WUHU21623XXSP,2013-05-25 02:07:00,
2013-05-24 21:08:00,78.1,64.0,30.17,West,260,5.0,17.0,62,0.00,,,0.00,WUHU21623XXSP,2013-05-25 02:08:00,
2013-05-24 21:09:00,78.1,64.0,30.17,WSW,247,8.0,17.0,62,0.00,,,0.00,WUHU21623XXSP,2013-05-25 02:09:00,
2013-05-24 21:13:00,77.7,64.1,30.17,WSW,251,5.0,13.0,63,0.00,,,0.00,WUHU21623XXSP,2013-05-25 02:13:00,
2013-05-24 21:14:00,77.7,64.1,30.18,WNW,292,5.0,13.0,63,0.00,,,0.00,WUHU21623XXSP,2013-05-25 02:14:00,
2013-05-24 21:18:00,77.5,64.4,30.17,SW,225,4.0,10.0,64,0.00,,,0.00,WUHU21623XXSP,2013-05-25 02:18:00,
2013-05-24 21:19:00,77.5,64.4,30.17,SW,225,4.0,10.0,64,0.00,,,0.00,WUHU21623XXSP,2013-05-25 02:19:00,
2013-05-24 21:23:00,77.2,64.9,30.18,WSW,247,4.0,7.0,66,0.00,,,0.00,WUHU21623XXSP,2013-05-25 02:23:00,
2013-05-24 21:24:00,77.2,64.9,30.18,WNW,292,5.0,7.0,66,0.00,,,0.00,WUHU21623XXSP,2013-05-25 02:24:00,
2013-05-24 21:25:00,77.0,65.2,30.18,WNW,292,5.0,7.0,67,0.00,,,0.00,WUHU21623XXSP,2013-05-25 02:25:00,
2013-05-24 21:28:00,76.8,65.0,30.18,WNW,292,3.0,7.0,67,0.00,,,0.00,WUHU21623XXSP,2013-05-25 02:28:00,
2013-05-24 21:29:00,76.8,65.0,30.18,WNW,292,3.0,7.0,67,0.00,,,0.00,WUHU21623XXSP,2013-05-25 02:29:00,
2013-05-24 21:30:00,76.6,64.8,30.18,West,270,3.0,7.0,67,0.00,,,0.00,WUHU21623XXSP,2013-05-25 02:30:00,
2013-05-24 21:33:00,76.6,65.3,30.17,NW,315,0.0,5.0,68,0.00,,,0.00,WUHU21623XXSP,2013-05-25 02:33:00,
2013-05-24 21:34:00,76.6,65.3,30.18,SW,225,7.0,7.0,68,0.00,,,0.00,WUHU21623XXSP,2013-05-25 02:34:00,
2013-05-24 21:35:00,76.6,65.3,30.18,SW,225,7.0,7.0,68,0.00,,,0.00,WUHU21623XXSP,2013-05-25 02:35:00,
2013-05-24 21:38:00,76.3,65.4,30.18,WSW,247,2.0,7.0,69,0.00,,,0.00,WUHU21623XXSP,2013-05-25 02:38:00,
2013-05-24 21:39:00,76.3,65.4,30.18,West,270,3.0,7.0,69,0.00,,,0.00,WUHU21623XXSP,2013-05-25 02:39:00,
2013-05-24 21:40:00,76.3,65.4,30.18,West,270,3.0,7.0,69,0.00,,,0.00,WUHU21623XXSP,2013-05-25 02:40:00,
2013-05-24 21:41:00,76.3,65.4,30.18,WSW,247,10.0,10.0,69,0.00,,,0.00,WUHU21623XXSP,2013-05-25 02:41:00,
2013-05-24 21:43:00,76.3,65.8,30.18,WSW,253,7.0,10.0,70,0.00,,,0.00,WUHU21623XXSP,2013-05-25 02:43:00,
2013-05-24 21:44:00,76.1,65.7,30.18,WNW,292,3.0,10.0,70,0.00,,,0.00,WUHU21623XXSP,2013-05-25 02:44:00,
2013-05-24 21:45:00,76.1,65.7,30.18,WNW,292,3.0,10.0,70,0.00,,,0.00,WUHU21623XXSP,2013-05-25 02:45:00,
2013-05-24 21:46:00,76.1,65.7,30.19,West,270,2.0,10.0,70,0.00,,,0.00,WUHU21623XXSP,2013-05-25 02:46:00,
2013-05-24 21:48:00,76.1,65.7,30.19,SW,225,7.0,10.0,70,0.00,,,0.00,WUHU21623XXSP,2013-05-25 02:48:00,
2013-05-24 21:49:00,75.9,65.5,30.19,WSW,244,6.0,10.0,70,0.00,,,0.00,WUHU21623XXSP,2013-05-25 02:49:00,
2013-05-24 21:50:00,75.9,65.5,30.19,West,270,4.0,10.0,70,0.00,,,0.00,WUHU21623XXSP,2013-05-25 02:50:00,
2013-05-24 21:51:00,75.9,65.5,30.19,West,279,3.0,7.0,70,0.00,,,0.00,WUHU21623XXSP,2013-05-25 02:51:00,
2013-05-24 21:53:00,75.9,65.5,30.20,WSW,247,6.0,7.0,70,0.00,,,0.00,WUHU21623XXSP,2013-05-25 02:53:00,
2013-05-24 21:54:00,75.9,65.5,30.20,WSW,247,6.0,7.0,70,0.00,,,0.00,WUHU21623XXSP,2013-05-25 02:54:00,
2013-05-24 21:55:00,75.9,65.5,30.20,WSW,247,6.0,7.0,70,0.00,,,0.00,WUHU21623XXSP,2013-05-25 02:55:00,
2013-05-24 21:56:00,75.7,65.7,30.20,WNW,292,3.0,7.0,71,0.00,,,0.00,WUHU21623XXSP,2013-05-25 02:56:00,
2013-05-24 21:59:00,75.7,65.7,30.19,NW,315,2.0,6.0,71,0.00,,,0.00,WUHU21623XXSP,2013-05-25 02:59:00,
2013-05-24 22:00:00,75.7,65.7,30.19,NW,315,2.0,6.0,71,0.00,,,0.00,WUHU21623XXSP,2013-05-25 03:00:00,
2013-05-24 22:01:00,75.7,65.7,30.20,WNW,286,3.0,6.0,71,0.00,,,0.00,WUHU21623XXSP,2013-05-25 03:01:00,
2013-05-24 22:04:00,75.6,65.5,30.19,NW,315,3.0,4.0,71,0.00,,,0.00,WUHU21623XXSP,2013-05-25 03:04:00,
2013-05-24 22:05:00,75.6,65.5,30.19,NW,315,3.0,4.0,71,0.00,,,0.00,WUHU21623XXSP,2013-05-25 03:05:00,
2013-05-24 22:06:00,75.6,65.5,30.19,NW,304,3.0,4.0,71,0.00,,,0.00,WUHU21623XXSP,2013-05-25 03:06:00,
2013-05-24 22:07:00,75.6,65.5,30.19,SW,225,6.0,6.0,71,0.00,,,0.00,WUHU21623XXSP,2013-05-25 03:07:00,
2013-05-24 22:09:00,75.4,65.3,30.20,West,270,0.0,6.0,71,0.00,,,0.00,WUHU21623XXSP,2013-05-25 03:09:00,
2013-05-24 22:10:00,75.4,65.3,30.20,West,270,0.0,6.0,71,0.00,,,0.00,WUHU21623XXSP,2013-05-25 03:10:00,
2013-05-24 22:11:00,75.4,65.3,30.20,West,270,0.0,6.0,71,0.00,,,0.00,WUHU21623XXSP,2013-05-25 03:11:00,
2013-05-24 22:12:00,75.4,65.3,30.20,WNW,292,1.0,6.0,71,0.00,,,0.00,WUHU21623XXSP,2013-05-25 03:12:00,
2013-05-24 22:14:00,75.4,65.3,30.20,WNW,292,1.0,6.0,71,0.00,,,0.00,WUHU21623XXSP,2013-05-25 03:14:00,
2013-05-24 22:15:00,75.4,65.3,30.20,WNW,292,1.0,6.0,71,0.00,,,0.00,WUHU21623XXSP,2013-05-25 03:15:00,
2013-05-24 22:16:00,75.2,65.2,30.20,West,270,3.0,6.0,71,0.00,,,0.00,WUHU21623XXSP,2013-05-25 03:16:00,
2013-05-24 22:17:00,75.0,65.0,30.20,West,270,3.0,3.0,71,0.00,,,0.00,WUHU21623XXSP,2013-05-25 03:17:00,
2013-05-24 22:20:00,75.0,65.0,30.20,WNW,292,0.0,3.0,71,0.00,,,0.00,WUHU21623XXSP,2013-05-25 03:20:00,
2013-05-24 22:21:00,75.0,65.0,30.20,WNW,292,0.0,3.0,71,0.00,,,0.00,WUHU21623XXSP,2013-05-25 03:21:00,
2013-05-24 22:23:00,75.0,65.0,30.20,West,270,1.0,3.0,71,0.00,,,0.00,WUHU21623XXSP,2013-05-25 03:23:00,
2013-05-24 22:25:00,74.8,64.8,30.20,NW,315,0.0,3.0,71,0.00,,,0.00,WUHU21623XXSP,2013-05-25 03:25:00,
2013-05-24 22:26:00,74.8,64.8,30.20,NW,315,0.0,1.0,71,0.00,,,0.00,WUHU21623XXSP,2013-05-25 03:26:00,
2013-05-24 22:28:00,74.8,64.8,30.20,NW,315,0.0,1.0,71,0.00,,,0.00,WUHU21623XXSP,2013-05-25 03:28:00,
2013-05-24 22:30:00,74.5,64.5,30.20,WSW,247,3.0,3.0,71,0.00,,,0.00,WUHU21623XXSP,2013-05-25 03:30:00,
2013-05-24 22:31:00,74.5,64.5,30.20,WSW,247,3.0,3.0,71,0.00,,,0.00,WUHU21623XXSP,2013-05-25 03:31:00,
2013-05-24 22:33:00,74.5,64.5,30.26,ESE,123,6.0,8.0,71,0.00,,,0.00,WUHU21623XXSP,2013-05-25 03:33:00,
2013-05-24 22:35:00,74.5,64.5,30.26,SSE,157,10.0,10.0,71,0.00,,,0.00,WUHU21623XXSP,2013-05-25 03:35:00,
2013-05-24 22:36:00,74.5,64.5,30.26,SSE,157,10.0,10.0,71,0.00,,,0.00,WUHU21623XXSP,2013-05-25 03:36:00,
2013-05-24 22:38:00,74.5,64.5,30.27,South,190,7.0,10.0,71,0.00,,,0.00,WUHU21623XXSP,2013-05-25 03:38:00,
2013-05-24 22:41:00,74.5,64.5,30.25,SE,135,2.0,10.0,71,0.00,,,0.00,WUHU21623XXSP,2013-05-25 03:41:00,
2013-05-24 22:43:00,74.5,64.5,30.26,SSE,165,7.0,12.0,71,0.00,,,0.00,WUHU21623XXSP,2013-05-25 03:43:00,
2013-05-24 22:45:00,74.3,64.3,30.26,South,180,4.0,12.0,71,0.02,,,0.00,WUHU21623XXSP,2013-05-25 03:45:00,
2013-05-24 22:46:00,74.3,64.3,30.26,South,180,4.0,12.0,71,0.02,,,0.00,WUHU21623XXSP,2013-05-25 03:46:00,
2013-05-24 22:47:00,74.5,64.5,30.26,SSE,157,4.0,12.0,71,0.02,,,0.02,WUHU21623XXSP,2013-05-25 03:47:00,
2013-05-24 22:49:00,74.5,64.5,30.26,South,180,4.0,12.0,71,0.04,,,0.04,WUHU21623XXSP,2013-05-25 03:49:00,
2013-05-24 22:50:00,74.5,64.5,30.25,SSW,202,10.0,12.0,71,0.10,,,0.06,WUHU21623XXSP,2013-05-25 03:50:00,
2013-05-24 22:51:00,74.5,64.5,30.25,SSW,202,10.0,12.0,71,0.10,,,0.06,WUHU21623XXSP,2013-05-25 03:51:00,
2013-05-24 22:52:00,74.5,64.5,30.25,SSW,209,6.0,10.0,71,0.10,,,0.10,WUHU21623XXSP,2013-05-25 03:52:00,
2013-05-24 22:54:00,74.5,64.9,30.25,SW,225,4.0,10.0,72,0.14,,,0.12,WUHU21623XXSP,2013-05-25 03:54:00,
2013-05-24 22:56:00,74.3,64.7,30.26,SW,236,3.0,10.0,72,0.14,,,0.14,WUHU21623XXSP,2013-05-25 03:56:00,
2013-05-24 22:57:00,74.3,64.7,30.26,SW,236,3.0,10.0,72,0.14,,,0.14,WUHU21623XXSP,2013-05-25 03:57:00,
2013-05-24 22:59:00,74.3,64.7,30.27,SSE,157,0.0,10.0,72,0.16,,,0.16,WUHU21623XXSP,2013-05-25 03:59:00,
2013-05-24 23:01:00,74.3,64.7,30.27,South,180,0.0,5.0,72,0.18,,,0.16,WUHU21623XXSP,2013-05-25 04:01:00,
2013-05-24 23:06:00,74.5,64.9,30.28,WNW,292,0.0,5.0,72,0.20,,,0.19,WUHU21623XXSP,2013-05-25 04:06:00,
2013-05-24 23:07:00,74.5,64.9,30.27,WNW,292,0.0,5.0,72,0.22,,,0.21,WUHU21623XXSP,2013-05-25 04:07:00,
2013-05-24 23:11:00,74.5,64.9,30.26,NW,315,0.0,0.0,72,0.24,,,0.25,WUHU21623XXSP,2013-05-25 04:11:00,
2013-05-24 23:12:00,74.5,65.3,30.26,NW,315,0.0,0.0,73,0.24,,,0.25,WUHU21623XXSP,2013-05-25 04:12:00,
2013-05-24 23:16:00,74.3,65.1,30.26,NNW,337,0.0,0.0,73,0.24,,,0.25,WUHU21623XXSP,2013-05-25 04:16:00,
2013-05-24 23:17:00,74.3,65.1,30.25,NNW,337,0.0,0.0,73,0.24,,,0.25,WUHU21623XXSP,2013-05-25 04:17:00,
2013-05-24 23:21:00,74.3,65.1,30.25,NE,45,0.0,0.0,73,0.24,,,0.25,WUHU21623XXSP,2013-05-25 04:21:00,
2013-05-24 23:22:00,74.3,65.1,30.25,NE,45,0.0,0.0,73,0.24,,,0.25,WUHU21623XXSP,2013-05-25 04:22:00,
2013-05-24 23:26:00,74.3,65.1,30.25,WSW,247,0.0,0.0,73,0.26,,,0.27,WUHU21623XXSP,2013-05-25 04:26:00,
2013-05-24 23:27:00,74.3,65.1,30.25,WSW,247,0.0,0.0,73,0.26,,,0.27,WUHU21623XXSP,2013-05-25 04:27:00,
2013-05-24 23:28:00,74.5,65.3,30.25,SW,225,0.0,0.0,73,0.26,,,0.27,WUHU21623XXSP,2013-05-25 04:28:00,
2013-05-24 23:31:00,74.5,65.3,30.25,SW,225,2.0,2.0,73,0.26,,,0.27,WUHU21623XXSP,2013-05-25 04:31:00,
2013-05-24 23:32:00,74.5,65.3,30.25,SW,225,0.0,2.0,73,0.26,,,0.27,WUHU21623XXSP,2013-05-25 04:32:00,
2013-05-24 23:33:00,74.5,65.3,30.25,SW,225,0.0,2.0,73,0.26,,,0.27,WUHU21623XXSP,2013-05-25 04:33:00,
2013-05-24 23:36:00,74.5,65.3,30.25,North,0,0.0,2.0,73,0.26,,,0.27,WUHU21623XXSP,2013-05-25 04:36:00,
2013-05-24 23:37:00,74.5,65.3,30.25,North,0,0.0,2.0,73,0.26,,,0.27,WUHU21623XXSP,2013-05-25 04:37:00,
2013-05-24 23:38:00,74.5,65.3,30.25,North,0,0.0,2.0,73,0.26,,,0.27,WUHU21623XXSP,2013-05-25 04:38:00,
2013-05-24 23:41:00,74.5,65.7,30.24,WSW,247,0.0,0.0,74,0.26,,,0.27,WUHU21623XXSP,2013-05-25 04:41:00,
2013-05-24 23:42:00,74.5,65.7,30.24,WSW,247,0.0,0.0,74,0.26,,,0.27,WUHU21623XXSP,2013-05-25 04:42:00,
2013-05-24 23:43:00,74.5,65.7,30.25,SW,225,0.0,0.0,74,0.26,,,0.27,WUHU21623XXSP,2013-05-25 04:43:00,
2013-05-24 23:47:00,74.3,65.5,30.25,WNW,292,0.0,0.0,74,0.22,,,0.27,WUHU21623XXSP,2013-05-25 04:47:00,
2013-05-24 23:48:00,74.3,65.5,30.25,NNW,337,0.0,0.0,74,0.22,,,0.27,WUHU21623XXSP,2013-05-25 04:48:00,
2013-05-24 23:52:00,74.3,65.5,30.25,NW,315,0.0,0.0,74,0.16,,,0.27,WUHU21623XXSP,2013-05-25 04:52:00,
2013-05-24 23:53:00,74.1,65.3,30.25,NW,315,0.0,0.0,74,0.12,,,0.27,WUHU21623XXSP,2013-05-25 04:53:00,
2013-05-24 23:54:00,74.1,65.3,30.25,West,270,0.0,0.0,74,0.12,,,0.27,WUHU21623XXSP,2013-05-25 04:54:00,
2013-05-24 23:57:00,73.9,65.2,30.25,WNW,292,0.0,0.0,74,0.10,,,0.27,WUHU21623XXSP,2013-05-25 04:57:00,
2013-05-24 23:58:00,74.1,65.3,30.25,WNW,292,0.0,0.0,74,0.10,,,0.27,WUHU21623XXSP,2013-05-25 04:58:00,
2013-05-24 23:59:00,74.1,65.3,30.25,WNW,292,0.0,0.0,74,0.10,,,0.27,WUHU21623XXSP,2013-05-25 04:59:00,